GFSWCAN_prec_precacc_114.txt.gz
Total_Precipitation_Accumulation
0.99 0.84 0.71 0.58 0.68 0.56 0.56 0.69 0.68 0.70 0.63 0.66 0.75 0.63 0.50 0.62 1.17 1.88 1.80 1.24 3.18 1.94 0.44 0.30 0.21 0.09 0.09 0.41 0.72 0.49 0.64 0.67 0.73 0.58 0.39 0.30 0.23 0.18 0.19 0.36 0.62 0.51 0.42 0.45 0.47 0.45 0.26 0.05 0.18 0.58 1.01 0.54 0.63 0.56
1.31 1.04 0.66 0.54 0.54 0.55 0.54 0.69 0.66 0.69 0.56 0.54 0.67 0.65 0.64 0.77 1.35 1.66 1.54 1.19 2.23 2.40 0.95 0.43 0.33 0.12 0.08 0.16 0.47 0.61 0.52 0.40 0.31 0.51 0.43 0.29 0.21 0.21 0.19 0.34 0.56 0.57 0.41 0.53 0.34 0.38 0.23 0.17 0.19 0.10 0.08 0.10 0.08 0.12
1.35 1.21 0.91 0.55 0.46 0.54 0.66 0.73 0.65 0.73 0.65 0.61 0.74 0.81 0.75 1.06 1.54 1.64 1.25 1.32 3.05 3.17 1.15 0.55 0.44 0.25 0.11 0.14 0.32 0.44 0.31 0.26 0.31 0.50 0.49 0.48 0.34 0.32 0.27 0.34 0.51 0.73 0.46 0.69 0.48 0.40 0.23 0.25 0.25 0.08 0.06 0.05 0.07 0.16
1.34 1.13 0.98 0.74 0.55 0.50 0.54 0.57 0.55 0.66 0.76 0.85 1.03 0.97 0.96 1.46 1.68 1.73 1.42 1.29 2.01 2.18 1.62 0.53 0.24 0.30 0.19 0.10 0.25 0.23 0.16 0.18 0.37 0.57 0.62 0.60 0.35 0.19 0.20 0.23 0.32 0.37 0.65 0.99 0.89 0.73 0.46 0.32 0.32 0.31 0.19 0.20 0.16 0.06
0.94 0.95 0.80 0.72 0.71 0.60 0.52 0.53 0.56 0.68 0.88 0.99 1.35 1.13 1.32 1.59 1.91 2.16 1.65 1.48 1.33 1.65 1.46 0.71 0.39 0.35 0.52 0.29 0.25 0.23 0.28 0.37 0.58 0.94 0.83 0.45 0.19 0.27 0.21 0.28 0.43 0.29 0.74 0.97 1.49 1.02 0.83 0.65 0.48 0.45 0.34 0.10 0.04 0.06
0.84 0.78 0.82 0.68 0.64 0.74 0.68 0.68 0.71 0.77 0.78 1.09 1.22 1.24 1.36 1.77 3.12 4.14 4.41 2.16 1.43 1.41 1.59 1.18 0.65 0.41 0.57 0.65 0.51 0.57 0.48 0.57 0.80 0.79 0.70 0.48 0.31 0.61 0.64 0.47 0.21 0.19 0.28 0.45 0.73 0.97 0.79 0.73 0.50 0.30 0.17 0.14 0.04 0.00
0.99 0.83 0.83 0.78 0.69 0.78 0.94 0.87 0.76 0.74 0.90 1.14 1.12 1.38 1.48 2.18 3.34 2.62 1.82 1.27 1.17 1.50 1.94 1.15 0.89 0.62 0.71 0.81 0.84 0.61 0.65 0.63 0.88 0.96 0.54 0.32 0.36 0.62 0.72 0.55 0.18 0.22 0.26 0.30 0.33 0.36 0.43 0.40 0.32 0.21 0.14 0.07 0.04 0.02
1.04 0.87 0.71 0.76 0.77 0.73 0.79 0.98 1.05 1.00 1.02 1.02 1.41 1.76 2.02 2.93 2.94 1.58 0.60 0.58 1.04 1.67 1.47 1.14 0.89 1.09 1.09 1.16 0.96 0.93 0.87 0.86 0.87 0.93 0.59 0.41 0.60 0.84 0.84 0.22 0.06 0.09 0.10 0.20 0.18 0.13 0.20 0.20 0.17 0.14 0.09 0.07 0.05 0.03
0.69 0.66 0.71 0.73 0.94 1.01 0.97 1.04 1.23 1.26 1.26 1.65 2.34 3.32 4.90 4.84 3.62 1.66 1.11 1.09 1.43 1.71 1.46 0.72 0.79 1.52 1.18 1.44 1.20 1.11 1.20 1.46 1.01 0.63 0.49 0.73 0.75 1.14 0.69 0.23 0.13 0.08 0.07 0.07 0.06 0.05 0.08 0.13 0.14 0.12 0.11 0.08 0.10 0.17
0.57 0.55 0.61 0.64 0.78 1.16 1.41 1.39 1.36 1.62 2.11 3.14 4.25 5.48 5.65 3.11 1.75 2.12 3.51 3.41 2.55 1.61 1.09 0.63 0.37 1.15 1.42 1.42 1.44 1.37 0.97 1.21 1.28 0.69 0.60 0.78 0.88 0.60 0.29 0.19 0.15 0.12 0.08 0.03 0.04 0.04 0.04 0.08 0.10 0.11 0.16 0.18 0.15 0.13
0.49 0.50 0.48 0.49 0.59 0.84 1.05 1.11 1.27 1.75 3.19 4.77 4.88 4.69 3.24 2.03 2.21 3.00 2.89 2.06 1.23 0.74 0.53 0.46 0.46 0.85 1.27 1.50 1.50 1.68 1.50 0.84 0.64 0.75 0.77 0.74 0.46 0.40 0.26 0.22 0.21 0.16 0.15 0.15 0.12 0.06 0.05 0.09 0.17 0.18 0.16 0.12 0.09 0.04
0.56 0.45 0.40 0.33 0.29 0.57 0.71 0.90 1.20 1.68 2.48 2.79 2.98 2.67 2.81 2.83 2.63 2.47 1.76 1.00 0.41 0.35 0.39 0.37 0.35 0.62 1.21 1.95 1.74 1.62 1.54 1.24 0.84 0.49 0.63 0.53 0.39 0.16 0.12 0.12 0.13 0.21 0.22 0.18 0.20 0.27 0.32 0.30 0.24 0.16 0.11 0.08 0.08 0.12
0.60 0.40 0.37 0.31 0.34 0.44 0.50 0.92 1.19 1.30 1.82 2.25 2.49 3.11 3.12 2.97 2.36 1.68 0.85 0.45 0.30 0.24 0.29 0.25 0.41 0.52 0.73 1.33 2.10 1.57 1.34 1.10 1.06 1.17 0.74 0.47 0.24 0.16 0.14 0.14 0.17 0.21 0.26 0.34 0.37 0.42 0.41 0.45 0.45 0.40 0.44 0.56 0.58 0.72
0.44 0.36 0.37 0.42 0.54 0.66 0.82 1.04 1.22 1.92 2.24 2.03 2.05 2.42 1.92 1.67 1.31 0.95 0.49 0.31 0.28 0.29 0.26 0.31 0.39 0.40 0.53 0.93 1.72 1.67 1.45 1.06 1.26 1.15 0.58 0.58 0.57 0.39 0.20 0.15 0.15 0.23 0.29 0.39 0.57 0.61 0.64 0.68 0.86 1.02 1.08 1.14 0.98 1.04
0.40 0.48 0.56 0.65 0.75 0.81 1.13 1.05 1.40 1.34 1.32 1.35 1.16 1.36 0.97 1.03 0.83 0.65 0.54 0.44 0.46 0.44 0.47 0.63 0.71 0.57 0.66 1.05 1.04 1.05 0.98 0.86 0.64 0.61 0.74 0.75 0.51 0.31 0.30 0.28 0.30 0.36 0.46 0.59 0.65 0.63 0.71 0.68 0.57 0.79 0.89 0.84 0.67 0.73
0.79 0.65 0.56 0.60 0.64 0.85 1.00 0.97 1.02 0.87 0.87 0.68 0.63 0.69 0.65 0.68 0.72 0.68 0.69 0.67 0.65 0.79 0.87 1.07 1.04 0.91 1.05 0.78 0.65 0.71 0.59 0.64 0.72 0.54 0.47 0.41 0.41 0.46 0.47 0.51 0.58 0.65 0.69 0.68 0.68 0.60 0.58 0.55 0.45 0.55 0.61 0.56 0.59 0.47
0.96 0.57 0.45 0.46 0.45 0.56 0.61 0.73 0.69 0.62 0.58 0.47 0.70 0.78 0.69 0.64 0.69 0.74 0.72 0.62 0.60 0.79 0.76 0.59 0.48 0.67 0.68 0.48 0.52 0.52 0.73 0.75 0.64 0.58 0.52 0.47 0.48 0.60 0.67 0.70 0.77 0.78 0.71 0.61 0.57 0.55 0.58 0.55 0.40 0.28 0.39 0.56 0.42 0.40
1.20 0.62 0.47 0.47 0.45 0.57 0.60 0.54 0.35 0.22 0.32 0.59 0.68 0.96 0.76 0.92 0.82 0.67 0.67 0.56 0.43 0.42 0.35 0.36 0.26 0.24 0.38 0.39 0.47 0.59 0.67 0.68 0.64 0.72 0.83 0.83 0.74 0.78 0.78 0.81 0.86 0.73 0.60 0.63 0.58 0.59 0.56 0.50 0.39 0.47 0.42 0.43 0.29 0.30
0.79 0.61 0.53 0.43 0.30 0.26 0.32 0.24 0.10 0.20 0.58 0.63 0.75 0.69 0.58 0.70 0.77 0.77 0.63 0.52 0.41 0.27 0.26 0.35 0.37 0.45 0.58 0.68 0.76 0.75 0.83 0.68 0.73 0.86 0.93 0.99 0.93 0.86 0.88 0.82 0.75 0.69 0.61 0.65 0.56 0.51 0.51 0.46 0.41 0.37 0.32 0.26 0.24 0.21
1.09 0.87 0.52 0.38 0.14 0.04 0.05 0.09 0.01 0.09 0.41 0.52 0.60 0.42 0.33 0.51 0.41 0.23 0.16 0.14 0.13 0.13 0.28 0.42 0.72 0.90 0.97 1.04 0.96 0.90 0.94 0.76 0.58 0.51 0.72 0.89 0.99 0.78 0.82 0.68 0.63 0.61 0.49 0.49 0.47 0.42 0.35 0.31 0.31 0.25 0.18 0.13 0.13 0.10
0.96 0.97 0.62 0.33 0.10 0.02 0.04 0.03 0.06 0.08 0.15 0.33 0.30 0.11 0.20 0.11 0.05 0.04 0.01 0.00 0.05 0.28 0.62 0.85 0.85 0.93 0.93 0.90 0.78 0.63 0.66 0.56 0.57 0.39 0.47 0.61 0.80 0.57 0.60 0.63 0.55 0.46 0.39 0.41 0.36 0.37 0.27 0.26 0.21 0.14 0.15 0.11 0.09 0.08
0.50 0.57 0.56 0.30 0.16 0.03 0.04 0.02 0.07 0.09 0.06 0.13 0.12 0.07 0.11 0.10 0.06 0.03 0.00 0.04 0.32 0.60 0.72 0.74 0.69 0.63 0.56 0.63 0.73 0.64 0.72 0.49 0.43 0.38 0.43 0.40 0.47 0.47 0.53 0.58 0.41 0.41 0.37 0.37 0.27 0.22 0.16 0.12 0.11 0.09 0.09 0.07 0.06 0.08
0.43 0.47 0.47 0.36 0.19 0.05 0.04 0.03 0.01 0.04 0.05 0.06 0.03 0.02 0.04 0.06 0.06 0.01 0.05 0.16 0.51 0.72 0.59 0.47 0.52 0.50 0.51 0.64 0.41 0.44 0.55 0.39 0.37 0.43 0.45 0.40 0.39 0.41 0.36 0.36 0.31 0.26 0.20 0.18 0.15 0.13 0.13 0.09 0.06 0.04 0.04 0.07 0.10 0.10
0.38 0.39 0.35 0.31 0.18 0.13 0.05 0.02 0.01 0.02 0.02 0.03 0.02 0.05 0.08 0.06 0.02 0.02 0.10 0.27 0.53 0.40 0.32 0.46 0.38 0.35 0.30 0.23 0.28 0.38 0.52 0.31 0.28 0.32 0.32 0.17 0.15 0.18 0.13 0.13 0.12 0.12 0.12 0.10 0.07 0.05 0.04 0.05 0.05 0.07 0.09 0.10 0.09 0.12
0.30 0.29 0.24 0.16 0.06 0.04 0.03 0.03 0.04 0.03 0.03 0.03 0.04 0.08 0.05 0.03 0.02 0.05 0.11 0.34 0.29 0.28 0.31 0.29 0.23 0.23 0.26 0.33 0.33 0.30 0.22 0.14 0.12 0.13 0.19 0.10 0.09 0.08 0.06 0.06 0.06 0.07 0.06 0.06 0.04 0.06 0.06 0.08 0.10 0.09 0.08 0.10 0.13 0.14
0.17 0.12 0.10 0.08 0.05 0.04 0.04 0.04 0.05 0.05 0.05 0.08 0.12 0.10 0.05 0.06 0.05 0.13 0.23 0.34 0.27 0.31 0.35 0.32 0.26 0.16 0.16 0.16 0.16 0.14 0.11 0.09 0.04 0.03 0.08 0.06 0.07 0.09 0.08 0.06 0.05 0.05 0.04 0.08 0.14 0.13 0.08 0.05 0.06 0.08 0.09 0.11 0.14 0.17
0.08 0.06 0.02 0.03 0.05 0.08 0.09 0.07 0.10 0.10 0.11 0.16 0.13 0.10 0.15 0.12 0.12 0.25 0.30 0.25 0.22 0.27 0.21 0.16 0.10 0.08 0.09 0.09 0.06 0.04 0.02 0.01 0.01 0.02 0.03 0.03 0.03 0.04 0.09 0.16 0.18 0.17 0.09 0.09 0.13 0.16 0.17 0.15 0.13 0.12 0.14 0.12 0.15 0.23
0.05 0.05 0.09 0.10 0.14 0.14 0.14 0.13 0.16 0.16 0.15 0.16 0.15 0.11 0.13 0.13 0.23 0.32 0.29 0.31 0.20 0.12 0.07 0.04 0.02 0.02 0.03 0.05 0.06 0.04 0.04 0.02 0.01 0.01 0.03 0.06 0.06 0.09 0.10 0.11 0.12 0.09 0.08 0.10 0.12 0.14 0.18 0.22 0.21 0.18 0.18 0.21 0.20 0.17
0.09 0.08 0.08 0.09 0.10 0.08 0.11 0.12 0.14 0.15 0.16 0.13 0.09 0.09 0.12 0.20 0.37 0.33 0.31 0.22 0.17 0.10 0.07 0.07 0.12 0.07 0.04 0.02 0.02 0.03 0.03 0.05 0.05 0.04 0.03 0.06 0.12 0.14 0.09 0.09 0.09 0.09 0.10 0.09 0.09 0.14 0.17 0.19 0.18 0.18 0.25 0.27 0.23 0.24
0.05 0.05 0.04 0.04 0.05 0.12 0.19 0.12 0.13 0.11 0.05 0.04 0.05 0.09 0.13 0.31 0.44 0.31 0.25 0.18 0.16 0.15 0.13 0.10 0.12 0.08 0.07 0.06 0.03 0.05 0.11 0.09 0.10 0.15 0.15 0.12 0.12 0.12 0.10 0.11 0.10 0.10 0.10 0.10 0.09 0.08 0.08 0.06 0.07 0.14 0.14 0.15 0.22 0.27
0.02 0.02 0.02 0.03 0.09 0.15 0.13 0.08 0.09 0.07 0.07 0.06 0.05 0.05 0.17 0.26 0.28 0.21 0.20 0.21 0.10 0.07 0.07 0.06 0.06 0.07 0.06 0.07 0.10 0.11 0.15 0.13 0.13 0.13 0.13 0.12 0.12 0.11 0.10 0.09 0.08 0.08 0.08 0.08 0.08 0.09 0.09 0.08 0.11 0.14 0.11 0.11 0.14 0.15
0.02 0.03 0.02 0.02 0.12 0.11 0.14 0.18 0.11 0.11 0.10 0.07 0.09 0.07 0.14 0.11 0.13 0.18 0.16 0.16 0.14 0.12 0.11 0.13 0.13 0.15 0.16 0.16 0.15 0.15 0.15 0.14 0.12 0.12 0.13 0.13 0.12 0.10 0.06 0.06 0.07 0.08 0.08 0.07 0.08 0.09 0.09 0.09 0.09 0.08 0.11 0.09 0.10 0.09
0.02 0.02 0.02 0.03 0.06 0.09 0.09 0.10 0.05 0.05 0.06 0.07 0.12 0.13 0.14 0.13 0.20 0.27 0.22 0.18 0.27 0.26 0.20 0.21 0.22 0.21 0.21 0.17 0.14 0.14 0.13 0.12 0.11 0.10 0.11 0.09 0.07 0.04 0.04 0.05 0.05 0.06 0.06 0.06 0.08 0.09 0.09 0.07 0.08 0.08 0.08 0.07 0.08 0.07

GFSWCAN_prec_precacc_117.txt.gz
Total_Precipitation_Accumulation
1.01 0.88 0.90 0.74 0.74 0.58 0.57 0.70 0.69 0.70 0.63 0.66 0.75 0.63 0.50 0.62 1.17 1.89 1.82 1.24 3.18 1.94 0.44 0.30 0.21 0.09 0.09 0.42 0.73 0.49 0.64 0.68 0.73 0.58 0.40 0.31 0.24 0.18 0.20 0.40 0.69 0.56 0.43 0.46 0.49 0.49 0.33 0.08 0.18 0.61 1.08 0.57 0.64 0.62
1.33 1.06 0.73 0.66 0.64 0.62 0.58 0.71 0.67 0.69 0.56 0.54 0.68 0.65 0.64 0.77 1.35 1.66 1.56 1.20 2.24 2.40 0.95 0.43 0.33 0.12 0.08 0.16 0.48 0.61 0.52 0.40 0.31 0.52 0.44 0.29 0.22 0.21 0.19 0.40 0.67 0.70 0.42 0.55 0.38 0.42 0.28 0.18 0.22 0.14 0.09 0.11 0.08 0.12
1.36 1.21 0.93 0.60 0.49 0.58 0.73 0.75 0.66 0.73 0.65 0.61 0.74 0.81 0.75 1.06 1.54 1.64 1.27 1.33 3.05 3.18 1.15 0.55 0.44 0.25 0.11 0.14 0.32 0.44 0.32 0.26 0.31 0.52 0.50 0.49 0.35 0.33 0.30 0.36 0.53 0.77 0.47 0.69 0.50 0.41 0.23 0.25 0.26 0.09 0.06 0.06 0.07 0.16
1.36 1.13 0.98 0.75 0.56 0.52 0.59 0.60 0.56 0.67 0.76 0.85 1.03 0.97 0.96 1.46 1.68 1.73 1.43 1.31 2.01 2.20 1.62 0.53 0.24 0.30 0.19 0.10 0.25 0.23 0.17 0.19 0.38 0.57 0.62 0.61 0.35 0.19 0.21 0.23 0.34 0.37 0.66 1.00 0.90 0.73 0.48 0.32 0.32 0.32 0.20 0.21 0.16 0.06
0.95 0.96 0.80 0.73 0.72 0.61 0.54 0.55 0.58 0.69 0.88 0.99 1.35 1.13 1.32 1.59 1.91 2.16 1.66 1.49 1.33 1.65 1.48 0.72 0.39 0.35 0.52 0.29 0.25 0.23 0.29 0.38 0.58 0.94 0.84 0.45 0.19 0.27 0.21 0.30 0.47 0.30 0.74 0.97 1.50 1.02 0.85 0.67 0.49 0.46 0.36 0.11 0.04 0.06
0.85 0.79 0.83 0.69 0.65 0.75 0.71 0.69 0.72 0.77 0.78 1.09 1.22 1.25 1.36 1.77 3.12 4.14 4.41 2.18 1.44 1.44 1.60 1.19 0.65 0.41 0.57 0.65 0.51 0.57 0.49 0.58 0.80 0.79 0.70 0.48 0.31 0.62 0.64 0.47 0.21 0.19 0.28 0.45 0.73 0.98 0.80 0.74 0.51 0.31 0.20 0.15 0.05 0.00
1.00 0.83 0.83 0.78 0.70 0.79 0.96 0.89 0.78 0.74 0.90 1.14 1.12 1.38 1.48 2.18 3.34 2.63 1.83 1.30 1.20 1.52 1.95 1.15 0.90 0.63 0.71 0.81 0.84 0.61 0.66 0.64 0.88 0.96 0.54 0.32 0.36 0.63 0.74 0.56 0.18 0.22 0.26 0.30 0.33 0.40 0.46 0.42 0.34 0.22 0.16 0.09 0.05 0.02
1.06 0.89 0.71 0.77 0.78 0.74 0.80 0.99 1.07 1.02 1.03 1.02 1.41 1.77 2.03 2.94 2.94 1.58 0.60 0.59 1.10 1.71 1.48 1.15 0.90 1.11 1.09 1.17 0.96 0.93 0.87 0.87 0.87 0.93 0.59 0.41 0.61 0.88 0.88 0.22 0.06 0.09 0.10 0.20 0.18 0.13 0.21 0.22 0.20 0.16 0.11 0.09 0.06 0.04
0.70 0.68 0.72 0.73 0.94 1.02 1.00 1.05 1.25 1.27 1.28 1.66 2.35 3.33 4.91 4.85 3.63 1.66 1.13 1.11 1.46 1.83 1.54 0.74 0.80 1.54 1.19 1.44 1.20 1.12 1.21 1.46 1.01 0.63 0.49 0.74 0.78 1.20 0.73 0.23 0.13 0.08 0.07 0.07 0.06 0.05 0.08 0.14 0.15 0.15 0.14 0.11 0.12 0.18
0.57 0.55 0.62 0.65 0.79 1.16 1.42 1.41 1.38 1.63 2.13 3.16 4.26 5.49 5.66 3.11 1.76 2.15 3.53 3.45 2.61 1.64 1.12 0.65 0.37 1.17 1.44 1.44 1.45 1.39 0.98 1.21 1.29 0.69 0.61 0.80 0.92 0.63 0.29 0.19 0.15 0.12 0.08 0.03 0.04 0.05 0.04 0.08 0.10 0.11 0.16 0.18 0.16 0.14
0.50 0.50 0.48 0.49 0.59 0.84 1.06 1.13 1.30 1.77 3.21 4.78 4.89 4.69 3.26 2.05 2.22 3.02 2.91 2.09 1.25 0.76 0.53 0.46 0.46 0.85 1.30 1.52 1.51 1.68 1.53 0.87 0.65 0.76 0.79 0.77 0.48 0.42 0.26 0.22 0.21 0.16 0.15 0.15 0.12 0.06 0.05 0.09 0.17 0.18 0.16 0.12 0.09 0.04
0.57 0.46 0.40 0.33 0.29 0.57 0.72 0.93 1.24 1.70 2.49 2.80 2.98 2.69 3.08 2.90 2.64 2.49 1.80 1.03 0.42 0.35 0.40 0.37 0.35 0.62 1.24 1.98 1.77 1.63 1.55 1.24 0.85 0.54 0.65 0.55 0.40 0.16 0.12 0.12 0.13 0.21 0.22 0.18 0.20 0.27 0.32 0.30 0.24 0.16 0.11 0.08 0.08 0.12
0.61 0.41 0.37 0.31 0.34 0.44 0.52 0.97 1.21 1.33 1.84 2.25 2.50 3.13 3.34 3.07 2.38 1.69 0.87 0.46 0.31 0.25 0.29 0.25 0.41 0.52 0.74 1.35 2.11 1.58 1.35 1.10 1.08 1.24 0.77 0.48 0.25 0.16 0.14 0.14 0.17 0.21 0.26 0.34 0.37 0.42 0.41 0.45 0.45 0.40 0.44 0.56 0.58 0.72
0.45 0.38 0.37 0.42 0.54 0.67 0.85 1.09 1.24 1.97 2.26 2.04 2.07 2.44 2.07 1.77 1.32 0.96 0.50 0.31 0.29 0.29 0.26 0.31 0.40 0.40 0.53 0.94 1.72 1.67 1.45 1.06 1.27 1.19 0.60 0.59 0.57 0.39 0.20 0.15 0.15 0.23 0.29 0.39 0.57 0.61 0.64 0.68 0.86 1.02 1.08 1.14 0.98 1.04
0.41 0.49 0.57 0.65 0.75 0.82 1.15 1.11 1.43 1.36 1.33 1.37 1.20 1.43 1.07 1.14 0.84 0.66 0.56 0.45 0.47 0.45 0.47 0.63 0.71 0.58 0.66 1.05 1.04 1.05 0.98 0.87 0.65 0.62 0.75 0.76 0.51 0.31 0.30 0.28 0.30 0.36 0.46 0.59 0.65 0.63 0.71 0.68 0.57 0.79 0.89 0.84 0.67 0.73
0.80 0.68 0.56 0.60 0.64 0.86 1.08 1.13 1.07 0.87 0.87 0.71 0.68 0.78 0.73 0.76 0.73 0.68 0.71 0.71 0.66 0.80 0.88 1.08 1.05 0.91 1.05 0.78 0.65 0.72 0.60 0.69 0.78 0.55 0.48 0.41 0.41 0.46 0.47 0.51 0.58 0.65 0.69 0.68 0.68 0.60 0.58 0.55 0.45 0.55 0.61 0.56 0.59 0.47
0.97 0.57 0.45 0.46 0.46 0.66 0.79 0.78 0.69 0.63 0.59 0.48 0.71 0.79 0.74 0.67 0.71 0.75 0.72 0.62 0.60 0.79 0.77 0.60 0.48 0.67 0.68 0.48 0.52 0.52 0.74 0.75 0.64 0.59 0.52 0.47 0.48 0.60 0.67 0.70 0.77 0.78 0.71 0.61 0.57 0.55 0.58 0.55 0.41 0.29 0.39 0.56 0.42 0.40
1.20 0.62 0.47 0.48 0.55 0.79 0.68 0.55 0.36 0.22 0.32 0.59 0.68 0.97 0.77 0.93 0.83 0.67 0.67 0.56 0.43 0.42 0.36 0.37 0.26 0.24 0.38 0.39 0.47 0.59 0.68 0.69 0.64 0.72 0.83 0.83 0.74 0.78 0.78 0.81 0.86 0.73 0.60 0.63 0.58 0.59 0.56 0.51 0.40 0.47 0.42 0.43 0.30 0.30
0.81 0.62 0.54 0.45 0.36 0.30 0.33 0.24 0.10 0.22 0.58 0.63 0.75 0.69 0.58 0.70 0.77 0.77 0.63 0.52 0.41 0.27 0.26 0.35 0.37 0.45 0.58 0.68 0.76 0.76 0.83 0.68 0.73 0.86 0.93 0.99 0.93 0.86 0.88 0.82 0.75 0.69 0.61 0.65 0.57 0.52 0.51 0.46 0.42 0.37 0.32 0.26 0.25 0.21
1.13 0.88 0.52 0.38 0.16 0.05 0.05 0.10 0.01 0.09 0.41 0.52 0.60 0.42 0.33 0.51 0.41 0.23 0.17 0.14 0.13 0.13 0.29 0.42 0.72 0.90 0.97 1.04 0.96 0.90 0.94 0.76 0.58 0.51 0.73 0.89 0.99 0.78 0.82 0.68 0.63 0.61 0.49 0.49 0.47 0.42 0.36 0.32 0.31 0.25 0.18 0.13 0.13 0.10
1.01 1.00 0.63 0.34 0.13 0.11 0.06 0.04 0.06 0.08 0.15 0.33 0.30 0.11 0.20 0.11 0.06 0.05 0.02 0.00 0.06 0.29 0.62 0.85 0.85 0.94 0.93 0.90 0.78 0.63 0.66 0.56 0.57 0.39 0.47 0.61 0.80 0.57 0.60 0.64 0.55 0.46 0.39 0.41 0.37 0.37 0.28 0.27 0.21 0.14 0.15 0.12 0.09 0.08
0.55 0.64 0.63 0.36 0.26 0.08 0.07 0.02 0.07 0.09 0.06 0.13 0.13 0.07 0.12 0.11 0.07 0.03 0.01 0.05 0.32 0.60 0.72 0.74 0.69 0.63 0.56 0.63 0.73 0.64 0.72 0.49 0.43 0.38 0.43 0.40 0.47 0.48 0.53 0.58 0.41 0.41 0.38 0.37 0.28 0.23 0.16 0.12 0.11 0.09 0.09 0.07 0.06 0.08
0.47 0.51 0.56 0.45 0.27 0.10 0.08 0.04 0.02 0.04 0.05 0.07 0.03 0.02 0.05 0.06 0.06 0.01 0.05 0.17 0.51 0.72 0.59 0.47 0.52 0.50 0.51 0.64 0.41 0.44 0.55 0.39 0.37 0.43 0.45 0.41 0.40 0.41 0.36 0.37 0.32 0.26 0.21 0.18 0.15 0.13 0.13 0.09 0.06 0.04 0.04 0.07 0.10 0.10
0.43 0.51 0.49 0.40 0.23 0.17 0.07 0.05 0.02 0.02 0.02 0.03 0.03 0.06 0.09 0.06 0.02 0.02 0.10 0.27 0.53 0.40 0.32 0.46 0.38 0.36 0.30 0.23 0.28 0.38 0.52 0.31 0.28 0.32 0.32 0.17 0.15 0.18 0.13 0.13 0.12 0.12 0.12 0.10 0.07 0.05 0.04 0.05 0.05 0.07 0.09 0.10 0.09 0.12
0.35 0.35 0.30 0.21 0.08 0.05 0.04 0.04 0.04 0.03 0.04 0.03 0.04 0.08 0.05 0.03 0.02 0.05 0.11 0.34 0.29 0.29 0.32 0.29 0.23 0.23 0.26 0.33 0.33 0.30 0.22 0.14 0.12 0.13 0.19 0.10 0.09 0.08 0.06 0.06 0.06 0.07 0.06 0.06 0.05 0.06 0.06 0.08 0.10 0.09 0.08 0.10 0.13 0.14
0.24 0.15 0.12 0.09 0.05 0.05 0.04 0.05 0.05 0.05 0.05 0.08 0.12 0.10 0.05 0.06 0.05 0.13 0.23 0.34 0.27 0.31 0.35 0.32 0.26 0.16 0.16 0.16 0.16 0.14 0.11 0.09 0.04 0.03 0.08 0.06 0.07 0.09 0.08 0.06 0.05 0.05 0.04 0.08 0.14 0.13 0.08 0.05 0.06 0.08 0.09 0.11 0.14 0.17
0.09 0.06 0.02 0.03 0.05 0.08 0.09 0.07 0.10 0.10 0.11 0.16 0.13 0.10 0.15 0.12 0.12 0.25 0.30 0.25 0.22 0.27 0.21 0.16 0.10 0.08 0.09 0.09 0.06 0.04 0.02 0.01 0.01 0.02 0.03 0.03 0.03 0.04 0.09 0.16 0.18 0.18 0.09 0.09 0.13 0.16 0.17 0.15 0.13 0.12 0.14 0.12 0.15 0.23
0.05 0.05 0.09 0.10 0.14 0.14 0.14 0.13 0.16 0.16 0.15 0.16 0.15 0.11 0.13 0.13 0.24 0.33 0.30 0.31 0.20 0.12 0.07 0.04 0.02 0.02 0.03 0.05 0.06 0.04 0.04 0.02 0.01 0.01 0.03 0.06 0.06 0.09 0.10 0.11 0.12 0.09 0.08 0.10 0.12 0.14 0.18 0.22 0.21 0.18 0.18 0.21 0.20 0.17
0.09 0.08 0.08 0.09 0.10 0.08 0.11 0.12 0.14 0.15 0.16 0.13 0.10 0.09 0.12 0.20 0.38 0.35 0.35 0.22 0.17 0.10 0.07 0.07 0.12 0.07 0.04 0.02 0.02 0.03 0.03 0.05 0.05 0.04 0.03 0.06 0.12 0.14 0.09 0.09 0.09 0.09 0.10 0.09 0.09 0.14 0.17 0.19 0.18 0.18 0.25 0.27 0.23 0.24
0.05 0.05 0.04 0.04 0.05 0.12 0.20 0.13 0.14 0.11 0.05 0.04 0.05 0.09 0.13 0.31 0.44 0.32 0.29 0.20 0.16 0.15 0.14 0.11 0.12 0.08 0.07 0.06 0.04 0.06 0.11 0.09 0.10 0.15 0.15 0.12 0.12 0.12 0.10 0.11 0.10 0.10 0.10 0.10 0.09 0.08 0.08 0.06 0.07 0.14 0.14 0.15 0.22 0.27
0.02 0.02 0.02 0.03 0.09 0.15 0.13 0.08 0.09 0.07 0.07 0.06 0.05 0.05 0.17 0.27 0.29 0.22 0.23 0.27 0.13 0.09 0.09 0.07 0.06 0.07 0.06 0.07 0.10 0.11 0.16 0.13 0.13 0.13 0.13 0.12 0.12 0.11 0.10 0.09 0.08 0.08 0.08 0.08 0.08 0.09 0.09 0.08 0.11 0.14 0.11 0.11 0.14 0.15
0.02 0.03 0.02 0.03 0.12 0.11 0.14 0.19 0.12 0.12 0.10 0.07 0.10 0.07 0.14 0.12 0.13 0.19 0.18 0.18 0.17 0.13 0.11 0.13 0.14 0.15 0.16 0.16 0.15 0.15 0.15 0.14 0.12 0.12 0.13 0.13 0.12 0.10 0.06 0.06 0.07 0.08 0.08 0.07 0.08 0.09 0.09 0.09 0.09 0.08 0.11 0.09 0.10 0.09
0.02 0.02 0.02 0.03 0.07 0.10 0.09 0.10 0.05 0.05 0.06 0.08 0.13 0.14 0.16 0.14 0.21 0.29 0.23 0.20 0.31 0.31 0.22 0.23 0.25 0.23 0.22 0.18 0.14 0.14 0.13 0.12 0.11 0.10 0.11 0.09 0.07 0.04 0.04 0.05 0.05 0.06 0.06 0.06 0.08 0.09 0.09 0.07 0.08 0.08 0.08 0.07 0.08 0.07

GFSWCAN_prec_precacc_123.txt.gz
Total_Precipitation_Accumulation
1.13 0.99 1.04 0.88 0.79 0.62 0.60 0.72 0.70 0.71 0.64 0.66 0.75 0.63 0.50 0.62 1.17 1.89 1.82 1.24 3.18 1.94 0.44 0.30 0.21 0.09 0.09 0.42 0.73 0.49 0.64 0.68 0.73 0.58 0.40 0.31 0.24 0.18 0.21 0.45 0.77 0.60 0.43 0.47 0.50 0.49 0.35 0.08 0.19 0.65 1.21 0.61 0.65 0.62
1.45 1.14 0.89 0.94 0.76 0.66 0.61 0.73 0.69 0.69 0.56 0.54 0.68 0.65 0.64 0.77 1.35 1.66 1.56 1.20 2.24 2.40 0.95 0.43 0.33 0.12 0.08 0.16 0.48 0.61 0.52 0.40 0.32 0.52 0.44 0.29 0.22 0.21 0.19 0.43 0.70 0.78 0.42 0.56 0.39 0.44 0.29 0.20 0.26 0.21 0.14 0.12 0.09 0.13
1.50 1.26 1.04 0.89 0.78 0.66 0.76 0.78 0.69 0.74 0.65 0.61 0.74 0.81 0.75 1.06 1.54 1.64 1.27 1.33 3.05 3.18 1.15 0.55 0.44 0.25 0.11 0.14 0.32 0.44 0.32 0.27 0.32 0.52 0.50 0.49 0.35 0.33 0.30 0.36 0.54 0.79 0.47 0.69 0.52 0.41 0.23 0.25 0.27 0.10 0.08 0.07 0.08 0.17
1.47 1.16 1.03 0.94 0.86 0.65 0.65 0.62 0.58 0.67 0.76 0.85 1.03 0.98 0.96 1.46 1.68 1.73 1.43 1.31 2.01 2.20 1.62 0.53 0.24 0.30 0.19 0.10 0.25 0.23 0.17 0.19 0.38 0.57 0.62 0.61 0.35 0.19 0.21 0.23 0.34 0.38 0.66 1.00 0.91 0.74 0.50 0.33 0.33 0.32 0.21 0.22 0.16 0.06
1.07 0.99 0.83 0.86 0.96 0.75 0.65 0.58 0.59 0.69 0.88 0.99 1.36 1.14 1.32 1.59 1.91 2.16 1.66 1.50 1.33 1.65 1.48 0.72 0.39 0.35 0.52 0.29 0.25 0.23 0.29 0.38 0.58 0.94 0.84 0.45 0.19 0.27 0.21 0.30 0.50 0.30 0.74 0.97 1.50 1.03 0.86 0.68 0.50 0.47 0.36 0.12 0.04 0.06
0.94 0.81 0.86 0.78 0.84 0.88 0.83 0.73 0.73 0.78 0.78 1.09 1.23 1.25 1.37 1.77 3.12 4.14 4.41 2.18 1.44 1.44 1.60 1.19 0.65 0.41 0.57 0.65 0.51 0.57 0.49 0.58 0.80 0.79 0.70 0.48 0.31 0.63 0.65 0.48 0.22 0.19 0.29 0.45 0.74 0.99 0.81 0.74 0.52 0.32 0.22 0.16 0.05 0.01
1.05 0.85 0.87 0.85 0.85 0.94 1.08 0.92 0.78 0.74 0.90 1.14 1.12 1.39 1.48 2.18 3.34 2.63 1.84 1.32 1.21 1.54 1.96 1.15 0.90 0.63 0.71 0.81 0.84 0.61 0.66 0.64 0.88 0.96 0.54 0.32 0.36 0.64 0.74 0.56 0.18 0.22 0.26 0.30 0.33 0.42 0.48 0.44 0.36 0.24 0.20 0.16 0.07 0.05
1.09 0.90 0.73 0.80 0.87 0.88 0.92 1.02 1.08 1.02 1.03 1.03 1.41 1.77 2.03 2.94 2.94 1.58 0.60 0.63 1.15 1.74 1.49 1.15 0.90 1.11 1.09 1.17 0.96 0.93 0.88 0.87 0.87 0.93 0.59 0.41 0.61 0.90 0.91 0.23 0.06 0.09 0.10 0.20 0.18 0.13 0.22 0.23 0.20 0.17 0.14 0.14 0.10 0.10
0.72 0.70 0.74 0.75 0.98 1.10 1.08 1.08 1.27 1.28 1.28 1.67 2.35 3.33 4.92 4.85 3.63 1.66 1.13 1.14 1.48 1.92 1.58 0.75 0.80 1.54 1.19 1.44 1.20 1.12 1.21 1.46 1.01 0.63 0.49 0.74 0.78 1.22 0.78 0.25 0.13 0.08 0.07 0.08 0.08 0.06 0.08 0.14 0.15 0.15 0.15 0.13 0.14 0.21
0.58 0.57 0.64 0.67 0.81 1.21 1.47 1.46 1.41 1.65 2.14 3.17 4.26 5.49 5.66 3.11 1.77 2.18 3.55 3.49 2.67 1.65 1.13 0.66 0.37 1.17 1.44 1.44 1.45 1.39 0.99 1.22 1.29 0.69 0.61 0.80 0.94 0.65 0.31 0.19 0.15 0.12 0.08 0.04 0.06 0.06 0.05 0.09 0.10 0.11 0.16 0.18 0.16 0.14
0.50 0.51 0.50 0.52 0.62 0.87 1.11 1.19 1.35 1.81 3.23 4.79 4.89 4.69 3.27 2.06 2.24 3.03 2.92 2.10 1.31 0.78 0.54 0.46 0.46 0.85 1.31 1.53 1.51 1.68 1.53 0.88 0.66 0.76 0.79 0.81 0.49 0.44 0.27 0.22 0.21 0.16 0.15 0.15 0.12 0.07 0.05 0.10 0.17 0.18 0.16 0.12 0.09 0.04
0.57 0.46 0.41 0.36 0.31 0.60 0.78 1.01 1.29 1.71 2.50 2.80 2.98 2.72 3.15 2.90 2.64 2.49 1.82 1.04 0.43 0.35 0.40 0.37 0.35 0.62 1.25 2.00 1.78 1.64 1.55 1.25 0.86 0.57 0.72 0.57 0.42 0.16 0.12 0.12 0.13 0.21 0.22 0.18 0.20 0.27 0.32 0.30 0.24 0.16 0.11 0.08 0.09 0.13
0.62 0.41 0.37 0.33 0.36 0.47 0.62 1.05 1.23 1.35 1.84 2.25 2.50 3.18 3.48 3.10 2.40 1.70 0.89 0.47 0.31 0.25 0.29 0.25 0.41 0.53 0.75 1.36 2.11 1.58 1.35 1.10 1.09 1.26 0.78 0.49 0.25 0.16 0.14 0.14 0.17 0.21 0.26 0.34 0.37 0.42 0.41 0.45 0.45 0.40 0.45 0.56 0.58 0.72
0.47 0.41 0.38 0.43 0.55 0.70 0.98 1.18 1.29 1.99 2.26 2.04 2.07 2.45 2.14 1.80 1.32 0.96 0.50 0.31 0.29 0.29 0.26 0.31 0.40 0.41 0.54 0.94 1.72 1.67 1.45 1.07 1.28 1.21 0.60 0.60 0.58 0.39 0.20 0.15 0.15 0.23 0.29 0.39 0.57 0.61 0.64 0.68 0.86 1.02 1.08 1.14 0.98 1.04
0.43 0.52 0.58 0.65 0.76 0.84 1.25 1.20 1.50 1.39 1.33 1.37 1.20 1.43 1.09 1.26 0.88 0.66 0.56 0.46 0.49 0.45 0.47 0.64 0.71 0.58 0.66 1.05 1.04 1.05 0.99 0.88 0.66 0.62 0.75 0.76 0.51 0.31 0.30 0.28 0.30 0.36 0.46 0.59 0.65 0.63 0.71 0.68 0.57 0.79 0.89 0.84 0.67 0.73
0.85 0.76 0.58 0.60 0.64 0.89 1.17 1.23 1.25 0.88 0.87 0.71 0.69 0.78 0.75 0.92 0.83 0.70 0.72 0.75 0.73 0.87 0.90 1.11 1.05 0.91 1.05 0.79 0.66 0.72 0.61 0.69 0.79 0.55 0.48 0.41 0.41 0.46 0.47 0.51 0.58 0.65 0.69 0.68 0.68 0.60 0.58 0.55 0.45 0.55 0.61 0.56 0.59 0.47
1.02 0.58 0.46 0.47 0.48 0.74 0.93 1.00 0.81 0.63 0.59 0.48 0.71 0.79 0.77 0.83 0.85 0.83 0.78 0.69 0.65 0.82 0.78 0.60 0.48 0.67 0.68 0.48 0.52 0.52 0.74 0.75 0.64 0.60 0.52 0.47 0.48 0.60 0.67 0.70 0.77 0.78 0.71 0.61 0.57 0.55 0.58 0.55 0.41 0.29 0.39 0.56 0.42 0.40
1.20 0.62 0.48 0.50 0.58 0.88 0.90 0.68 0.38 0.22 0.32 0.59 0.68 0.97 0.81 1.04 0.94 0.74 0.73 0.65 0.65 0.47 0.36 0.37 0.26 0.24 0.38 0.39 0.47 0.59 0.68 0.70 0.65 0.72 0.83 0.83 0.74 0.78 0.78 0.81 0.86 0.73 0.60 0.63 0.58 0.59 0.56 0.51 0.40 0.47 0.42 0.43 0.30 0.30
0.81 0.62 0.54 0.46 0.37 0.39 0.44 0.29 0.11 0.22 0.58 0.63 0.75 0.69 0.61 0.75 0.78 0.78 0.66 0.55 0.58 0.34 0.26 0.35 0.37 0.45 0.58 0.68 0.76 0.76 0.83 0.68 0.74 0.86 0.93 0.99 0.93 0.86 0.88 0.82 0.75 0.69 0.61 0.65 0.57 0.52 0.51 0.47 0.42 0.37 0.32 0.26 0.25 0.21
1.14 0.89 0.52 0.38 0.20 0.10 0.06 0.10 0.01 0.09 0.41 0.52 0.60 0.42 0.34 0.53 0.41 0.23 0.17 0.14 0.14 0.16 0.31 0.42 0.72 0.90 0.97 1.04 0.96 0.90 0.94 0.76 0.58 0.52 0.74 0.89 0.99 0.78 0.82 0.68 0.63 0.61 0.49 0.49 0.47 0.42 0.36 0.32 0.31 0.25 0.18 0.13 0.14 0.10
1.05 1.04 0.67 0.37 0.16 0.13 0.06 0.04 0.06 0.08 0.15 0.33 0.30 0.11 0.20 0.11 0.06 0.05 0.02 0.01 0.07 0.31 0.63 0.85 0.85 0.94 0.93 0.90 0.78 0.63 0.66 0.56 0.57 0.39 0.47 0.61 0.80 0.57 0.61 0.64 0.55 0.46 0.39 0.41 0.37 0.37 0.28 0.27 0.21 0.14 0.16 0.12 0.09 0.08
0.58 0.70 0.70 0.40 0.28 0.14 0.10 0.03 0.07 0.09 0.06 0.13 0.13 0.07 0.12 0.11 0.07 0.03 0.01 0.06 0.33 0.60 0.72 0.74 0.69 0.63 0.56 0.63 0.73 0.64 0.72 0.49 0.43 0.38 0.43 0.40 0.47 0.48 0.53 0.58 0.41 0.42 0.39 0.37 0.28 0.23 0.16 0.12 0.11 0.09 0.09 0.07 0.06 0.08
0.49 0.52 0.56 0.46 0.30 0.14 0.11 0.04 0.02 0.04 0.05 0.07 0.04 0.03 0.06 0.07 0.06 0.01 0.05 0.17 0.51 0.72 0.59 0.47 0.52 0.50 0.51 0.64 0.41 0.44 0.55 0.39 0.37 0.43 0.45 0.41 0.40 0.41 0.36 0.37 0.32 0.26 0.21 0.18 0.15 0.13 0.13 0.09 0.06 0.04 0.04 0.07 0.10 0.10
0.44 0.52 0.51 0.44 0.26 0.21 0.09 0.09 0.04 0.04 0.03 0.04 0.04 0.06 0.09 0.06 0.02 0.02 0.11 0.27 0.53 0.40 0.32 0.46 0.38 0.36 0.30 0.23 0.28 0.38 0.52 0.31 0.28 0.32 0.32 0.17 0.15 0.18 0.13 0.13 0.12 0.12 0.12 0.10 0.07 0.05 0.04 0.05 0.05 0.07 0.09 0.10 0.09 0.12
0.39 0.38 0.35 0.30 0.16 0.08 0.05 0.07 0.06 0.04 0.04 0.03 0.05 0.08 0.06 0.03 0.02 0.05 0.11 0.34 0.29 0.29 0.32 0.30 0.23 0.23 0.26 0.33 0.33 0.30 0.22 0.14 0.12 0.13 0.19 0.10 0.09 0.08 0.06 0.06 0.06 0.07 0.06 0.06 0.05 0.06 0.06 0.08 0.10 0.09 0.08 0.10 0.13 0.14
0.28 0.19 0.15 0.14 0.10 0.06 0.05 0.05 0.06 0.06 0.05 0.08 0.12 0.10 0.05 0.06 0.05 0.13 0.23 0.34 0.27 0.31 0.35 0.33 0.26 0.16 0.16 0.16 0.16 0.14 0.11 0.09 0.04 0.03 0.08 0.06 0.07 0.09 0.08 0.06 0.05 0.05 0.04 0.08 0.14 0.13 0.08 0.05 0.06 0.08 0.09 0.11 0.14 0.17
0.14 0.12 0.05 0.06 0.09 0.12 0.12 0.08 0.10 0.10 0.11 0.16 0.13 0.10 0.15 0.12 0.12 0.25 0.30 0.26 0.22 0.27 0.21 0.16 0.10 0.08 0.09 0.09 0.06 0.04 0.02 0.01 0.01 0.02 0.03 0.03 0.03 0.04 0.09 0.16 0.18 0.18 0.09 0.09 0.13 0.16 0.17 0.15 0.13 0.12 0.14 0.12 0.15 0.23
0.06 0.07 0.11 0.15 0.18 0.16 0.16 0.15 0.16 0.16 0.15 0.16 0.15 0.11 0.13 0.13 0.24 0.34 0.31 0.31 0.21 0.12 0.07 0.04 0.03 0.02 0.03 0.05 0.06 0.04 0.04 0.02 0.01 0.01 0.03 0.06 0.06 0.09 0.10 0.11 0.12 0.09 0.08 0.10 0.12 0.14 0.18 0.22 0.21 0.18 0.18 0.21 0.20 0.17
0.10 0.09 0.10 0.11 0.12 0.10 0.13 0.14 0.15 0.15 0.16 0.13 0.10 0.09 0.12 0.21 0.40 0.37 0.37 0.23 0.17 0.11 0.09 0.09 0.13 0.07 0.04 0.02 0.02 0.03 0.03 0.05 0.05 0.04 0.03 0.06 0.12 0.14 0.09 0.09 0.09 0.09 0.10 0.09 0.09 0.14 0.17 0.19 0.18 0.18 0.25 0.27 0.23 0.24
0.07 0.06 0.06 0.05 0.07 0.12 0.20 0.13 0.14 0.11 0.05 0.04 0.05 0.09 0.13 0.32 0.47 0.36 0.32 0.22 0.20 0.18 0.17 0.12 0.13 0.08 0.07 0.06 0.04 0.06 0.11 0.09 0.10 0.15 0.15 0.12 0.12 0.12 0.10 0.11 0.10 0.10 0.10 0.10 0.09 0.08 0.08 0.06 0.07 0.14 0.14 0.15 0.22 0.27
0.03 0.04 0.04 0.04 0.10 0.16 0.13 0.08 0.09 0.07 0.07 0.06 0.05 0.05 0.17 0.28 0.31 0.24 0.25 0.32 0.18 0.14 0.12 0.09 0.07 0.07 0.06 0.07 0.10 0.11 0.16 0.13 0.13 0.13 0.13 0.12 0.12 0.11 0.10 0.09 0.08 0.08 0.08 0.08 0.08 0.09 0.09 0.08 0.11 0.14 0.11 0.11 0.14 0.15
0.02 0.03 0.02 0.03 0.12 0.11 0.14 0.19 0.12 0.12 0.10 0.07 0.10 0.07 0.14 0.12 0.14 0.20 0.21 0.22 0.21 0.17 0.16 0.16 0.16 0.16 0.16 0.17 0.15 0.15 0.15 0.14 0.12 0.12 0.13 0.13 0.12 0.10 0.06 0.06 0.07 0.08 0.08 0.07 0.08 0.09 0.09 0.09 0.09 0.08 0.11 0.09 0.10 0.09
0.02 0.02 0.02 0.03 0.07 0.10 0.09 0.11 0.06 0.05 0.08 0.09 0.14 0.16 0.17 0.14 0.21 0.31 0.25 0.22 0.36 0.37 0.28 0.27 0.28 0.25 0.24 0.19 0.15 0.15 0.13 0.12 0.11 0.10 0.11 0.09 0.07 0.04 0.04 0.05 0.05 0.06 0.06 0.06 0.08 0.09 0.09 0.07 0.08 0.08 0.08 0.07 0.08 0.07

GFSWCAN_prec_precacc_126.txt.gz
Total_Precipitation_Accumulation
1.25 1.04 1.06 0.89 0.82 0.66 0.63 0.73 0.71 0.71 0.64 0.66 0.75 0.63 0.50 0.62 1.17 1.89 1.82 1.24 3.18 1.94 0.44 0.30 0.21 0.09 0.09 0.42 0.73 0.49 0.64 0.68 0.73 0.58 0.40 0.31 0.24 0.18 0.21 0.46 0.78 0.61 0.43 0.47 0.50 0.49 0.35 0.08 0.19 0.66 1.26 0.63 0.66 0.62
1.57 1.19 0.91 0.94 0.78 0.70 0.64 0.75 0.71 0.70 0.56 0.54 0.68 0.65 0.64 0.77 1.35 1.66 1.56 1.20 2.24 2.40 0.95 0.43 0.33 0.12 0.08 0.16 0.48 0.61 0.52 0.40 0.32 0.52 0.44 0.29 0.22 0.21 0.19 0.43 0.70 0.78 0.42 0.56 0.39 0.44 0.30 0.20 0.27 0.22 0.15 0.14 0.11 0.14
1.69 1.30 1.06 0.89 0.78 0.70 0.78 0.78 0.70 0.75 0.65 0.61 0.74 0.81 0.75 1.06 1.54 1.64 1.27 1.33 3.05 3.18 1.15 0.55 0.44 0.25 0.11 0.14 0.32 0.44 0.32 0.27 0.32 0.52 0.50 0.49 0.35 0.33 0.30 0.36 0.54 0.79 0.47 0.69 0.52 0.42 0.23 0.25 0.27 0.10 0.08 0.08 0.08 0.18
1.74 1.23 1.06 0.97 0.88 0.69 0.67 0.62 0.60 0.68 0.76 0.85 1.04 0.98 0.96 1.46 1.68 1.73 1.43 1.31 2.01 2.20 1.62 0.53 0.24 0.30 0.19 0.10 0.25 0.23 0.17 0.19 0.38 0.57 0.62 0.61 0.35 0.19 0.21 0.23 0.34 0.38 0.66 1.00 0.91 0.74 0.50 0.33 0.33 0.32 0.21 0.22 0.17 0.06
1.23 1.06 0.85 0.91 1.02 0.77 0.66 0.58 0.60 0.70 0.88 0.99 1.36 1.14 1.32 1.59 1.91 2.16 1.66 1.50 1.33 1.65 1.48 0.72 0.39 0.35 0.52 0.29 0.25 0.23 0.29 0.38 0.58 0.94 0.84 0.45 0.19 0.27 0.21 0.30 0.50 0.30 0.74 0.97 1.50 1.03 0.86 0.68 0.50 0.47 0.36 0.12 0.05 0.07
0.98 0.86 0.89 0.83 0.95 0.91 0.84 0.74 0.74 0.78 0.78 1.09 1.23 1.25 1.37 1.77 3.12 4.14 4.41 2.18 1.44 1.44 1.60 1.19 0.65 0.41 0.57 0.65 0.51 0.57 0.49 0.58 0.80 0.79 0.70 0.48 0.31 0.63 0.65 0.48 0.22 0.19 0.29 0.45 0.74 0.99 0.81 0.75 0.52 0.32 0.22 0.17 0.06 0.01
1.06 0.86 0.89 0.88 0.98 0.99 1.09 0.92 0.78 0.74 0.90 1.15 1.12 1.39 1.48 2.18 3.34 2.63 1.84 1.32 1.21 1.54 1.96 1.15 0.90 0.63 0.71 0.81 0.84 0.61 0.66 0.64 0.88 0.96 0.54 0.32 0.36 0.64 0.74 0.56 0.18 0.22 0.26 0.30 0.34 0.42 0.48 0.44 0.37 0.25 0.20 0.17 0.08 0.06
1.09 0.91 0.76 0.86 0.99 0.99 0.96 1.02 1.08 1.02 1.03 1.03 1.42 1.77 2.03 2.94 2.94 1.58 0.60 0.64 1.15 1.74 1.49 1.15 0.90 1.11 1.09 1.17 0.96 0.93 0.88 0.87 0.87 0.93 0.59 0.41 0.61 0.90 0.91 0.23 0.06 0.09 0.10 0.20 0.18 0.13 0.22 0.23 0.20 0.17 0.15 0.14 0.10 0.10
0.73 0.71 0.77 0.82 1.12 1.28 1.16 1.09 1.27 1.28 1.28 1.67 2.35 3.33 4.92 4.85 3.63 1.66 1.14 1.14 1.48 1.92 1.58 0.75 0.80 1.54 1.19 1.44 1.20 1.12 1.21 1.46 1.01 0.63 0.49 0.74 0.78 1.22 0.78 0.25 0.13 0.08 0.07 0.08 0.08 0.06 0.08 0.14 0.15 0.15 0.15 0.13 0.14 0.21
0.58 0.58 0.67 0.73 0.95 1.38 1.55 1.46 1.41 1.65 2.14 3.17 4.26 5.49 5.66 3.11 1.77 2.18 3.56 3.49 2.67 1.66 1.13 0.66 0.37 1.17 1.44 1.44 1.45 1.39 0.99 1.22 1.30 0.69 0.61 0.80 0.94 0.66 0.31 0.19 0.15 0.12 0.08 0.05 0.07 0.06 0.05 0.09 0.10 0.11 0.16 0.18 0.16 0.14
0.50 0.51 0.50 0.56 0.77 1.01 1.15 1.19 1.36 1.81 3.23 4.79 4.89 4.69 3.27 2.06 2.24 3.03 2.92 2.10 1.31 0.78 0.54 0.46 0.46 0.85 1.31 1.53 1.51 1.68 1.53 0.88 0.67 0.76 0.80 0.81 0.50 0.44 0.28 0.23 0.21 0.16 0.15 0.15 0.12 0.07 0.05 0.10 0.17 0.18 0.16 0.12 0.09 0.04
0.57 0.46 0.41 0.40 0.44 0.69 0.81 1.01 1.29 1.71 2.50 2.80 2.98 2.72 3.15 2.90 2.64 2.49 1.82 1.04 0.43 0.35 0.40 0.37 0.35 0.62 1.25 2.00 1.78 1.64 1.55 1.25 0.86 0.58 0.74 0.57 0.42 0.17 0.12 0.12 0.13 0.21 0.22 0.18 0.20 0.27 0.32 0.30 0.24 0.16 0.11 0.08 0.09 0.13
0.62 0.41 0.38 0.43 0.44 0.55 0.65 1.05 1.23 1.35 1.84 2.25 2.50 3.18 3.48 3.10 2.40 1.70 0.89 0.47 0.31 0.25 0.29 0.25 0.41 0.53 0.76 1.36 2.11 1.58 1.35 1.10 1.09 1.26 0.78 0.49 0.26 0.16 0.14 0.14 0.17 0.21 0.26 0.34 0.37 0.42 0.41 0.45 0.45 0.40 0.45 0.57 0.58 0.72
0.47 0.41 0.40 0.49 0.61 0.81 1.04 1.19 1.29 1.99 2.26 2.04 2.07 2.46 2.15 1.80 1.32 0.96 0.50 0.31 0.29 0.29 0.26 0.31 0.40 0.41 0.54 0.94 1.72 1.67 1.45 1.07 1.28 1.21 0.60 0.60 0.58 0.39 0.20 0.15 0.15 0.23 0.29 0.39 0.57 0.61 0.64 0.68 0.86 1.02 1.08 1.14 0.98 1.04
0.43 0.53 0.61 0.68 0.81 1.05 1.40 1.21 1.50 1.39 1.33 1.37 1.20 1.43 1.09 1.26 0.89 0.66 0.56 0.46 0.49 0.45 0.47 0.65 0.72 0.58 0.66 1.05 1.04 1.05 0.99 0.88 0.66 0.62 0.75 0.76 0.51 0.31 0.30 0.28 0.30 0.36 0.46 0.59 0.65 0.63 0.71 0.68 0.57 0.79 0.89 0.84 0.67 0.73
0.86 0.77 0.60 0.62 0.71 1.19 1.34 1.24 1.25 0.88 0.87 0.71 0.69 0.78 0.75 0.92 0.83 0.70 0.73 0.75 0.73 0.87 0.91 1.15 1.06 0.91 1.05 0.79 0.66 0.72 0.61 0.69 0.79 0.55 0.48 0.41 0.41 0.46 0.47 0.51 0.58 0.65 0.69 0.68 0.68 0.60 0.58 0.55 0.45 0.55 0.61 0.56 0.59 0.47
1.03 0.58 0.47 0.50 0.58 0.91 0.96 1.00 0.82 0.63 0.59 0.48 0.71 0.80 0.77 0.83 0.86 0.86 0.80 0.70 0.65 0.82 0.79 0.62 0.48 0.67 0.68 0.49 0.52 0.52 0.74 0.75 0.64 0.60 0.53 0.47 0.48 0.60 0.67 0.70 0.77 0.78 0.71 0.61 0.57 0.55 0.58 0.55 0.41 0.29 0.39 0.56 0.42 0.40
1.21 0.62 0.48 0.51 0.61 0.95 0.96 0.74 0.39 0.22 0.32 0.59 0.68 0.97 0.81 1.05 0.98 0.77 0.75 0.69 0.70 0.50 0.37 0.37 0.26 0.24 0.38 0.39 0.47 0.59 0.69 0.70 0.65 0.72 0.83 0.83 0.74 0.78 0.78 0.81 0.86 0.73 0.60 0.63 0.58 0.59 0.56 0.51 0.40 0.47 0.42 0.43 0.30 0.30
0.81 0.62 0.54 0.46 0.38 0.42 0.48 0.33 0.11 0.22 0.58 0.63 0.75 0.69 0.61 0.75 0.79 0.78 0.66 0.57 0.65 0.52 0.32 0.35 0.37 0.45 0.58 0.68 0.76 0.76 0.83 0.68 0.74 0.86 0.93 0.99 0.93 0.86 0.88 0.82 0.75 0.69 0.61 0.65 0.57 0.52 0.51 0.47 0.42 0.37 0.32 0.26 0.25 0.21
1.16 0.89 0.53 0.40 0.21 0.11 0.06 0.10 0.01 0.09 0.41 0.52 0.60 0.42 0.34 0.53 0.41 0.23 0.17 0.14 0.18 0.41 0.42 0.42 0.72 0.90 0.97 1.04 0.96 0.90 0.94 0.76 0.58 0.52 0.74 0.89 0.99 0.78 0.82 0.68 0.63 0.61 0.49 0.49 0.47 0.42 0.36 0.32 0.31 0.25 0.18 0.13 0.14 0.11
1.07 1.07 0.70 0.37 0.16 0.14 0.07 0.04 0.06 0.08 0.15 0.33 0.30 0.11 0.20 0.11 0.06 0.05 0.02 0.01 0.07 0.33 0.66 0.85 0.85 0.94 0.93 0.90 0.78 0.63 0.66 0.56 0.57 0.39 0.47 0.61 0.80 0.57 0.61 0.64 0.55 0.46 0.39 0.41 0.37 0.37 0.28 0.27 0.21 0.14 0.16 0.12 0.09 0.08
0.59 0.70 0.70 0.40 0.29 0.14 0.10 0.03 0.07 0.09 0.06 0.13 0.13 0.07 0.12 0.11 0.07 0.03 0.01 0.06 0.33 0.60 0.72 0.74 0.69 0.63 0.56 0.63 0.73 0.64 0.72 0.49 0.43 0.38 0.43 0.40 0.47 0.48 0.53 0.58 0.41 0.42 0.39 0.37 0.28 0.23 0.16 0.12 0.11 0.09 0.09 0.07 0.06 0.08
0.49 0.52 0.56 0.46 0.31 0.14 0.11 0.05 0.02 0.04 0.05 0.07 0.05 0.03 0.06 0.07 0.06 0.01 0.05 0.17 0.51 0.72 0.59 0.47 0.52 0.50 0.51 0.64 0.41 0.44 0.55 0.39 0.37 0.43 0.45 0.41 0.40 0.41 0.36 0.37 0.32 0.26 0.21 0.18 0.15 0.13 0.13 0.09 0.06 0.04 0.04 0.07 0.10 0.10
0.44 0.52 0.51 0.44 0.26 0.21 0.10 0.11 0.05 0.04 0.03 0.04 0.04 0.06 0.09 0.06 0.02 0.02 0.11 0.27 0.53 0.40 0.32 0.46 0.38 0.36 0.30 0.23 0.28 0.38 0.52 0.31 0.28 0.32 0.32 0.17 0.15 0.18 0.13 0.13 0.12 0.12 0.12 0.10 0.07 0.05 0.04 0.05 0.05 0.07 0.09 0.10 0.09 0.12
0.39 0.38 0.35 0.30 0.16 0.08 0.06 0.07 0.07 0.04 0.04 0.03 0.05 0.08 0.06 0.03 0.02 0.06 0.11 0.34 0.29 0.29 0.32 0.30 0.23 0.23 0.26 0.33 0.33 0.30 0.22 0.14 0.12 0.13 0.19 0.10 0.09 0.08 0.06 0.06 0.06 0.07 0.06 0.06 0.05 0.06 0.06 0.08 0.10 0.09 0.08 0.10 0.13 0.14
0.28 0.19 0.15 0.15 0.12 0.07 0.05 0.06 0.06 0.06 0.05 0.08 0.12 0.10 0.05 0.06 0.05 0.13 0.23 0.35 0.28 0.31 0.35 0.33 0.26 0.16 0.16 0.16 0.16 0.14 0.11 0.09 0.04 0.03 0.08 0.06 0.07 0.09 0.08 0.06 0.05 0.05 0.04 0.08 0.14 0.13 0.08 0.05 0.06 0.08 0.09 0.11 0.14 0.17
0.15 0.13 0.06 0.07 0.13 0.16 0.15 0.09 0.11 0.11 0.12 0.16 0.13 0.10 0.15 0.12 0.12 0.25 0.31 0.27 0.23 0.28 0.22 0.16 0.10 0.08 0.09 0.09 0.06 0.04 0.02 0.01 0.01 0.02 0.03 0.03 0.03 0.04 0.09 0.16 0.18 0.18 0.09 0.09 0.13 0.16 0.17 0.15 0.13 0.12 0.14 0.12 0.15 0.23
0.06 0.07 0.12 0.16 0.22 0.21 0.22 0.18 0.18 0.17 0.16 0.16 0.15 0.11 0.14 0.13 0.24 0.34 0.31 0.31 0.21 0.13 0.07 0.05 0.04 0.02 0.04 0.05 0.06 0.04 0.04 0.02 0.01 0.01 0.03 0.06 0.06 0.09 0.10 0.11 0.12 0.09 0.08 0.10 0.12 0.14 0.18 0.22 0.21 0.18 0.18 0.21 0.20 0.17
0.10 0.09 0.10 0.11 0.13 0.11 0.14 0.15 0.16 0.15 0.16 0.14 0.10 0.09 0.12 0.22 0.41 0.38 0.37 0.24 0.18 0.11 0.10 0.09 0.13 0.07 0.05 0.02 0.02 0.03 0.03 0.05 0.05 0.04 0.03 0.06 0.12 0.14 0.09 0.09 0.09 0.09 0.10 0.09 0.09 0.14 0.17 0.19 0.18 0.18 0.25 0.27 0.23 0.24
0.07 0.06 0.07 0.06 0.07 0.13 0.21 0.13 0.15 0.11 0.05 0.04 0.05 0.10 0.14 0.33 0.48 0.38 0.33 0.23 0.20 0.19 0.18 0.13 0.13 0.08 0.08 0.06 0.04 0.06 0.12 0.09 0.10 0.15 0.15 0.12 0.12 0.12 0.10 0.11 0.10 0.10 0.10 0.10 0.09 0.08 0.08 0.06 0.07 0.14 0.14 0.15 0.22 0.27
0.06 0.07 0.07 0.06 0.12 0.16 0.14 0.09 0.09 0.08 0.08 0.07 0.06 0.06 0.18 0.29 0.32 0.25 0.26 0.33 0.19 0.15 0.13 0.11 0.09 0.09 0.07 0.08 0.11 0.12 0.16 0.14 0.13 0.13 0.13 0.12 0.12 0.11 0.10 0.09 0.08 0.08 0.08 0.08 0.08 0.09 0.09 0.08 0.11 0.14 0.11 0.11 0.14 0.15
0.05 0.06 0.04 0.06 0.15 0.13 0.15 0.20 0.13 0.12 0.10 0.08 0.10 0.08 0.15 0.13 0.14 0.21 0.21 0.22 0.21 0.17 0.16 0.16 0.17 0.18 0.19 0.20 0.19 0.18 0.17 0.15 0.13 0.12 0.13 0.13 0.12 0.10 0.06 0.06 0.07 0.08 0.08 0.07 0.08 0.09 0.09 0.09 0.09 0.08 0.11 0.09 0.10 0.09
0.02 0.02 0.02 0.03 0.07 0.10 0.10 0.11 0.06 0.06 0.09 0.10 0.14 0.16 0.17 0.15 0.22 0.31 0.25 0.23 0.37 0.38 0.29 0.28 0.30 0.27 0.26 0.21 0.17 0.16 0.14 0.12 0.11 0.10 0.11 0.09 0.07 0.04 0.04 0.05 0.05 0.06 0.06 0.06 0.08 0.09 0.09 0.07 0.08 0.08 0.08 0.07 0.08 0.07

GFSWCAN_prec_precacc_132.txt.gz
Total_Precipitation_Accumulation
1.53 1.16 1.12 0.95 0.89 0.72 0.66 0.77 0.74 0.71 0.64 0.66 0.75 0.63 0.50 0.62 1.17 1.89 1.82 1.24 3.18 1.94 0.44 0.30 0.21 0.09 0.09 0.42 0.73 0.49 0.64 0.68 0.73 0.58 0.40 0.31 0.24 0.18 0.21 0.46 0.78 0.61 0.43 0.47 0.50 0.49 0.35 0.09 0.19 0.67 1.28 0.67 0.67 0.63
1.83 1.32 0.96 0.98 0.82 0.75 0.67 0.80 0.75 0.70 0.56 0.54 0.68 0.65 0.64 0.77 1.35 1.66 1.56 1.20 2.24 2.40 0.95 0.43 0.33 0.12 0.08 0.16 0.48 0.61 0.52 0.40 0.32 0.52 0.44 0.29 0.22 0.21 0.19 0.43 0.71 0.79 0.42 0.56 0.39 0.45 0.31 0.20 0.27 0.23 0.16 0.15 0.11 0.14
1.93 1.46 1.10 0.92 0.82 0.76 0.82 0.87 0.76 0.75 0.65 0.61 0.74 0.81 0.75 1.06 1.54 1.64 1.27 1.33 3.05 3.18 1.15 0.55 0.44 0.25 0.11 0.14 0.32 0.44 0.32 0.27 0.32 0.52 0.50 0.49 0.35 0.33 0.30 0.36 0.54 0.79 0.47 0.70 0.52 0.42 0.24 0.26 0.27 0.10 0.09 0.09 0.09 0.19
2.03 1.40 1.09 0.99 0.90 0.75 0.70 0.70 0.63 0.69 0.76 0.85 1.04 0.98 0.96 1.46 1.68 1.73 1.43 1.31 2.01 2.20 1.62 0.53 0.24 0.30 0.19 0.10 0.25 0.23 0.17 0.19 0.38 0.57 0.62 0.61 0.35 0.19 0.21 0.23 0.34 0.38 0.66 1.00 0.91 0.76 0.51 0.34 0.33 0.32 0.22 0.23 0.17 0.06
1.60 1.23 0.87 0.92 1.05 0.84 0.72 0.64 0.63 0.72 0.89 1.00 1.37 1.14 1.32 1.59 1.91 2.16 1.66 1.50 1.33 1.65 1.48 0.72 0.39 0.35 0.52 0.29 0.25 0.23 0.29 0.38 0.58 0.94 0.84 0.45 0.19 0.27 0.21 0.30 0.50 0.30 0.74 0.98 1.50 1.03 0.86 0.69 0.51 0.47 0.37 0.12 0.05 0.07
1.39 1.02 0.91 0.84 0.99 0.99 0.93 0.82 0.77 0.80 0.79 1.10 1.23 1.25 1.37 1.77 3.12 4.14 4.41 2.18 1.44 1.44 1.60 1.19 0.65 0.41 0.57 0.65 0.51 0.57 0.49 0.58 0.80 0.79 0.70 0.48 0.31 0.63 0.65 0.48 0.22 0.19 0.29 0.45 0.74 0.99 0.81 0.75 0.52 0.33 0.24 0.18 0.06 0.01
1.38 1.02 0.92 0.92 1.04 1.07 1.21 1.01 0.81 0.77 0.92 1.15 1.13 1.39 1.48 2.18 3.34 2.63 1.84 1.32 1.21 1.54 1.96 1.15 0.90 0.63 0.71 0.81 0.84 0.62 0.66 0.64 0.88 0.96 0.54 0.32 0.36 0.64 0.74 0.56 0.18 0.22 0.26 0.30 0.34 0.42 0.49 0.45 0.38 0.25 0.21 0.17 0.08 0.06
1.31 1.01 0.79 0.91 1.09 1.09 1.06 1.06 1.11 1.06 1.04 1.04 1.42 1.77 2.03 2.94 2.94 1.58 0.60 0.64 1.15 1.74 1.49 1.15 0.91 1.14 1.10 1.17 0.96 0.93 0.89 0.88 0.87 0.94 0.59 0.41 0.61 0.90 0.91 0.23 0.06 0.09 0.10 0.20 0.18 0.13 0.22 0.23 0.20 0.18 0.15 0.14 0.10 0.10
0.91 0.77 0.80 0.88 1.21 1.37 1.19 1.10 1.29 1.30 1.29 1.67 2.35 3.33 4.92 4.85 3.63 1.67 1.15 1.14 1.48 1.92 1.58 0.75 0.80 1.57 1.19 1.44 1.20 1.12 1.21 1.47 1.01 0.63 0.49 0.74 0.78 1.22 0.78 0.25 0.13 0.08 0.07 0.08 0.08 0.06 0.08 0.14 0.15 0.15 0.15 0.13 0.14 0.21
0.74 0.65 0.72 0.82 1.04 1.42 1.56 1.47 1.42 1.66 2.14 3.17 4.26 5.49 5.66 3.11 1.77 2.18 3.56 3.49 2.67 1.66 1.13 0.66 0.37 1.19 1.45 1.44 1.45 1.39 0.99 1.22 1.30 0.69 0.61 0.80 0.94 0.66 0.31 0.19 0.15 0.12 0.08 0.05 0.07 0.07 0.05 0.09 0.10 0.11 0.16 0.18 0.16 0.14
0.64 0.59 0.60 0.68 0.88 1.04 1.15 1.20 1.36 1.81 3.23 4.79 4.89 4.70 3.27 2.06 2.24 3.03 2.92 2.10 1.31 0.78 0.54 0.46 0.46 0.85 1.31 1.53 1.51 1.68 1.53 0.88 0.67 0.76 0.81 0.81 0.50 0.44 0.28 0.23 0.21 0.16 0.15 0.15 0.12 0.07 0.05 0.10 0.17 0.18 0.16 0.12 0.09 0.04
0.70 0.54 0.53 0.54 0.58 0.73 0.81 1.01 1.29 1.71 2.50 2.80 2.98 2.73 3.15 2.90 2.64 2.49 1.82 1.04 0.43 0.35 0.40 0.37 0.35 0.63 1.25 2.00 1.78 1.64 1.56 1.25 0.86 0.58 0.76 0.58 0.42 0.17 0.12 0.12 0.13 0.21 0.22 0.18 0.20 0.27 0.32 0.30 0.24 0.16 0.11 0.08 0.09 0.13
0.69 0.52 0.51 0.62 0.60 0.59 0.65 1.05 1.23 1.35 1.84 2.25 2.50 3.18 3.48 3.10 2.40 1.70 0.89 0.47 0.31 0.25 0.29 0.25 0.41 0.53 0.76 1.36 2.11 1.58 1.35 1.10 1.09 1.26 0.79 0.49 0.26 0.16 0.14 0.14 0.17 0.21 0.26 0.34 0.37 0.42 0.41 0.45 0.45 0.40 0.45 0.57 0.58 0.72
0.57 0.53 0.58 0.80 0.77 0.85 1.04 1.19 1.29 1.99 2.26 2.04 2.07 2.46 2.15 1.80 1.32 0.96 0.50 0.31 0.29 0.30 0.26 0.31 0.40 0.41 0.54 0.94 1.72 1.67 1.45 1.07 1.29 1.21 0.60 0.60 0.58 0.39 0.20 0.15 0.15 0.23 0.29 0.39 0.57 0.61 0.64 0.68 0.86 1.02 1.08 1.14 0.98 1.04
0.54 0.68 0.93 1.07 1.00 1.08 1.40 1.21 1.50 1.39 1.33 1.37 1.20 1.43 1.09 1.26 0.89 0.66 0.56 0.46 0.49 0.46 0.47 0.65 0.72 0.58 0.66 1.05 1.04 1.05 0.99 0.88 0.66 0.62 0.75 0.76 0.51 0.31 0.30 0.28 0.30 0.36 0.46 0.59 0.65 0.63 0.71 0.68 0.57 0.79 0.89 0.84 0.67 0.73
0.94 1.00 1.01 0.99 0.97 1.27 1.34 1.24 1.25 0.88 0.87 0.71 0.69 0.78 0.75 0.93 0.83 0.70 0.73 0.75 0.73 0.88 0.93 1.17 1.06 0.91 1.05 0.79 0.66 0.72 0.61 0.69 0.79 0.55 0.48 0.41 0.41 0.46 0.47 0.51 0.58 0.65 0.69 0.68 0.68 0.60 0.58 0.55 0.45 0.55 0.61 0.56 0.59 0.47
1.05 0.78 0.88 0.88 0.98 1.09 0.99 1.00 0.82 0.63 0.59 0.48 0.71 0.80 0.77 0.83 0.87 0.86 0.82 0.71 0.65 0.83 0.85 0.67 0.49 0.67 0.68 0.49 0.52 0.52 0.74 0.75 0.64 0.60 0.53 0.47 0.48 0.60 0.67 0.70 0.77 0.78 0.71 0.61 0.57 0.55 0.58 0.55 0.41 0.29 0.39 0.56 0.42 0.40
1.25 0.80 0.77 0.76 0.87 1.09 0.98 0.74 0.39 0.22 0.32 0.59 0.68 0.97 0.81 1.05 0.99 0.78 0.76 0.70 0.71 0.51 0.41 0.43 0.27 0.24 0.38 0.39 0.47 0.59 0.69 0.70 0.65 0.72 0.83 0.83 0.74 0.78 0.78 0.81 0.86 0.73 0.60 0.63 0.58 0.59 0.56 0.51 0.40 0.47 0.42 0.43 0.30 0.30
0.85 0.73 0.69 0.62 0.47 0.47 0.50 0.33 0.11 0.22 0.58 0.63 0.75 0.69 0.61 0.75 0.79 0.79 0.66 0.57 0.67 0.55 0.34 0.37 0.38 0.45 0.58 0.68 0.76 0.76 0.83 0.68 0.74 0.87 0.93 0.99 0.93 0.86 0.88 0.82 0.75 0.69 0.61 0.65 0.57 0.52 0.51 0.47 0.42 0.37 0.32 0.26 0.25 0.21
1.20 0.94 0.59 0.44 0.23 0.11 0.06 0.10 0.01 0.09 0.41 0.52 0.60 0.42 0.34 0.53 0.41 0.23 0.17 0.14 0.18 0.43 0.46 0.44 0.72 0.90 0.97 1.04 0.96 0.90 0.94 0.76 0.58 0.52 0.74 0.89 0.99 0.78 0.82 0.68 0.63 0.61 0.49 0.49 0.47 0.42 0.36 0.32 0.31 0.25 0.18 0.13 0.14 0.11
1.08 1.12 0.72 0.37 0.16 0.14 0.07 0.04 0.06 0.08 0.15 0.33 0.30 0.11 0.20 0.11 0.06 0.05 0.02 0.01 0.07 0.34 0.67 0.85 0.85 0.94 0.93 0.90 0.78 0.63 0.66 0.56 0.57 0.39 0.47 0.61 0.80 0.57 0.61 0.64 0.55 0.46 0.39 0.41 0.37 0.37 0.28 0.27 0.21 0.14 0.16 0.12 0.09 0.08
0.59 0.71 0.70 0.40 0.29 0.14 0.10 0.03 0.07 0.09 0.06 0.13 0.13 0.07 0.12 0.11 0.07 0.03 0.01 0.06 0.33 0.60 0.72 0.74 0.69 0.63 0.56 0.63 0.73 0.64 0.72 0.49 0.43 0.38 0.43 0.40 0.47 0.48 0.53 0.58 0.41 0.42 0.39 0.37 0.28 0.23 0.16 0.12 0.11 0.09 0.09 0.07 0.06 0.08
0.49 0.52 0.56 0.46 0.31 0.14 0.11 0.05 0.02 0.04 0.05 0.07 0.05 0.03 0.06 0.07 0.06 0.02 0.06 0.17 0.52 0.73 0.59 0.47 0.52 0.50 0.51 0.64 0.41 0.44 0.55 0.39 0.37 0.43 0.45 0.41 0.40 0.41 0.36 0.37 0.32 0.26 0.21 0.18 0.15 0.13 0.13 0.09 0.06 0.04 0.04 0.07 0.10 0.10
0.44 0.52 0.51 0.44 0.26 0.22 0.10 0.12 0.06 0.05 0.04 0.04 0.04 0.06 0.09 0.06 0.03 0.03 0.11 0.28 0.53 0.41 0.33 0.47 0.39 0.36 0.30 0.23 0.28 0.38 0.52 0.31 0.28 0.32 0.32 0.17 0.15 0.18 0.13 0.13 0.12 0.12 0.12 0.10 0.07 0.05 0.04 0.05 0.05 0.07 0.09 0.10 0.09 0.12
0.39 0.38 0.35 0.30 0.16 0.09 0.06 0.08 0.08 0.05 0.04 0.03 0.05 0.08 0.06 0.03 0.03 0.06 0.12 0.35 0.30 0.29 0.32 0.30 0.23 0.24 0.26 0.33 0.33 0.30 0.22 0.14 0.12 0.13 0.19 0.10 0.09 0.08 0.06 0.06 0.06 0.07 0.06 0.06 0.05 0.06 0.06 0.08 0.10 0.09 0.08 0.10 0.13 0.14
0.28 0.19 0.15 0.15 0.12 0.08 0.05 0.07 0.08 0.08 0.06 0.08 0.12 0.10 0.06 0.07 0.06 0.14 0.24 0.36 0.29 0.32 0.37 0.34 0.28 0.17 0.16 0.16 0.16 0.14 0.11 0.09 0.04 0.03 0.08 0.06 0.07 0.09 0.08 0.06 0.05 0.05 0.04 0.08 0.14 0.13 0.08 0.05 0.06 0.08 0.09 0.11 0.14 0.17
0.15 0.14 0.07 0.08 0.18 0.25 0.21 0.13 0.15 0.15 0.14 0.16 0.14 0.11 0.15 0.13 0.12 0.26 0.33 0.28 0.24 0.28 0.23 0.18 0.13 0.10 0.11 0.10 0.07 0.05 0.02 0.01 0.01 0.02 0.03 0.03 0.03 0.04 0.09 0.16 0.18 0.18 0.09 0.09 0.13 0.16 0.17 0.15 0.13 0.12 0.14 0.12 0.15 0.23
0.06 0.07 0.13 0.17 0.24 0.25 0.31 0.24 0.21 0.19 0.19 0.17 0.16 0.13 0.15 0.14 0.26 0.35 0.32 0.32 0.22 0.14 0.08 0.06 0.06 0.04 0.05 0.07 0.08 0.06 0.04 0.02 0.01 0.01 0.03 0.06 0.06 0.09 0.10 0.11 0.12 0.09 0.08 0.10 0.12 0.14 0.18 0.22 0.21 0.18 0.19 0.21 0.20 0.17
0.10 0.09 0.10 0.11 0.15 0.13 0.17 0.18 0.18 0.17 0.17 0.16 0.12 0.11 0.14 0.24 0.43 0.39 0.38 0.25 0.19 0.12 0.11 0.10 0.14 0.08 0.06 0.04 0.04 0.06 0.05 0.07 0.07 0.05 0.04 0.06 0.12 0.14 0.09 0.09 0.09 0.09 0.10 0.09 0.09 0.14 0.17 0.19 0.18 0.19 0.25 0.27 0.23 0.24
0.07 0.06 0.07 0.06 0.08 0.14 0.21 0.14 0.16 0.13 0.08 0.08 0.08 0.11 0.15 0.35 0.50 0.40 0.34 0.24 0.22 0.21 0.20 0.14 0.15 0.09 0.09 0.07 0.06 0.08 0.15 0.12 0.14 0.18 0.17 0.13 0.13 0.12 0.10 0.11 0.10 0.10 0.10 0.10 0.09 0.08 0.08 0.06 0.07 0.14 0.14 0.15 0.22 0.27
0.08 0.09 0.10 0.07 0.13 0.17 0.16 0.12 0.12 0.11 0.10 0.09 0.09 0.08 0.20 0.31 0.34 0.26 0.26 0.34 0.21 0.16 0.14 0.12 0.10 0.10 0.09 0.10 0.13 0.14 0.19 0.17 0.16 0.16 0.15 0.14 0.13 0.11 0.10 0.09 0.08 0.08 0.08 0.08 0.08 0.09 0.10 0.08 0.11 0.14 0.11 0.12 0.15 0.16
0.09 0.10 0.08 0.08 0.16 0.15 0.17 0.22 0.15 0.15 0.12 0.10 0.12 0.10 0.17 0.15 0.16 0.22 0.22 0.23 0.22 0.19 0.18 0.18 0.19 0.20 0.21 0.23 0.22 0.21 0.20 0.18 0.15 0.14 0.14 0.13 0.12 0.10 0.06 0.06 0.07 0.08 0.09 0.08 0.09 0.11 0.11 0.10 0.11 0.09 0.11 0.10 0.10 0.10
0.07 0.07 0.06 0.06 0.10 0.13 0.13 0.15 0.10 0.09 0.11 0.12 0.16 0.18 0.19 0.16 0.23 0.32 0.25 0.24 0.38 0.40 0.30 0.30 0.32 0.30 0.29 0.24 0.20 0.19 0.16 0.13 0.11 0.10 0.11 0.09 0.07 0.04 0.04 0.05 0.06 0.07 0.08 0.07 0.10 0.10 0.09 0.08 0.08 0.08 0.08 0.07 0.08 0.08

GFSWCAN_prec_precacc_135.txt.gz
Total_Precipitation_Accumulation
1.63 1.24 1.15 0.97 0.90 0.72 0.67 0.79 0.75 0.71 0.64 0.66 0.75 0.63 0.50 0.64 1.17 1.89 1.82 1.24 3.18 1.94 0.44 0.30 0.21 0.09 0.09 0.42 0.73 0.49 0.64 0.68 0.73 0.58 0.40 0.31 0.24 0.18 0.21 0.46 0.78 0.61 0.44 0.47 0.50 0.50 0.36 0.09 0.19 0.67 1.28 0.67 0.67 0.63
1.92 1.45 0.99 1.00 0.84 0.76 0.68 0.82 0.76 0.70 0.56 0.54 0.68 0.65 0.64 0.77 1.35 1.66 1.56 1.20 2.24 2.40 0.95 0.43 0.33 0.12 0.08 0.16 0.48 0.61 0.52 0.40 0.32 0.52 0.44 0.29 0.22 0.21 0.19 0.43 0.71 0.79 0.42 0.56 0.40 0.45 0.31 0.20 0.27 0.23 0.16 0.15 0.11 0.14
2.02 1.59 1.13 0.93 0.84 0.76 0.82 0.89 0.76 0.75 0.65 0.61 0.74 0.81 0.75 1.06 1.54 1.64 1.27 1.33 3.05 3.18 1.15 0.55 0.44 0.25 0.11 0.14 0.32 0.44 0.32 0.27 0.32 0.52 0.50 0.49 0.35 0.33 0.30 0.36 0.54 0.79 0.47 0.70 0.52 0.42 0.24 0.26 0.27 0.10 0.09 0.09 0.09 0.19
2.08 1.50 1.11 1.00 0.91 0.75 0.71 0.74 0.63 0.69 0.76 0.85 1.04 0.98 0.96 1.46 1.68 1.73 1.43 1.31 2.01 2.20 1.62 0.53 0.24 0.30 0.19 0.10 0.25 0.23 0.17 0.19 0.38 0.57 0.62 0.61 0.35 0.19 0.21 0.23 0.34 0.38 0.66 1.00 0.92 0.76 0.51 0.34 0.33 0.32 0.22 0.23 0.17 0.06
1.66 1.33 0.89 0.93 1.06 0.85 0.73 0.67 0.63 0.72 0.89 1.00 1.37 1.14 1.32 1.59 1.91 2.16 1.66 1.50 1.33 1.65 1.48 0.72 0.39 0.35 0.52 0.29 0.25 0.23 0.29 0.38 0.58 0.94 0.84 0.45 0.19 0.27 0.21 0.30 0.50 0.30 0.74 0.98 1.51 1.03 0.86 0.69 0.51 0.47 0.37 0.12 0.05 0.07
1.44 1.15 0.93 0.85 0.99 0.99 0.96 0.83 0.78 0.81 0.80 1.10 1.24 1.25 1.37 1.77 3.12 4.14 4.42 2.18 1.44 1.44 1.60 1.19 0.66 0.41 0.57 0.65 0.51 0.57 0.49 0.58 0.80 0.79 0.70 0.48 0.31 0.63 0.65 0.48 0.22 0.19 0.29 0.45 0.74 0.99 0.81 0.75 0.52 0.33 0.24 0.18 0.06 0.01
1.49 1.11 0.93 0.93 1.05 1.09 1.24 1.02 0.82 0.78 0.93 1.16 1.13 1.39 1.48 2.18 3.34 2.63 1.84 1.32 1.21 1.54 1.96 1.16 0.91 0.63 0.71 0.81 0.84 0.62 0.66 0.64 0.88 0.96 0.54 0.32 0.36 0.64 0.74 0.56 0.18 0.22 0.26 0.30 0.34 0.42 0.49 0.45 0.38 0.25 0.21 0.17 0.08 0.06
1.46 1.05 0.80 0.91 1.10 1.11 1.09 1.07 1.12 1.07 1.04 1.04 1.42 1.77 2.03 2.94 2.94 1.58 0.60 0.64 1.15 1.74 1.49 1.15 0.92 1.15 1.10 1.18 0.97 0.93 0.89 0.88 0.87 0.94 0.59 0.41 0.61 0.90 0.91 0.23 0.06 0.09 0.10 0.20 0.18 0.13 0.22 0.23 0.20 0.18 0.15 0.14 0.10 0.10
1.01 0.78 0.80 0.89 1.23 1.40 1.21 1.11 1.30 1.30 1.29 1.67 2.35 3.33 4.92 4.85 3.63 1.67 1.15 1.14 1.48 1.92 1.58 0.75 0.81 1.58 1.20 1.46 1.21 1.12 1.21 1.47 1.01 0.64 0.49 0.74 0.79 1.22 0.78 0.25 0.13 0.08 0.07 0.08 0.08 0.06 0.08 0.14 0.15 0.15 0.15 0.13 0.14 0.21
0.78 0.66 0.72 0.83 1.07 1.44 1.56 1.48 1.43 1.66 2.14 3.17 4.26 5.49 5.66 3.11 1.77 2.18 3.56 3.49 2.67 1.66 1.13 0.66 0.37 1.20 1.46 1.45 1.46 1.39 0.99 1.22 1.30 0.69 0.61 0.80 0.94 0.66 0.31 0.19 0.15 0.12 0.08 0.05 0.07 0.07 0.05 0.09 0.10 0.11 0.16 0.18 0.16 0.14
0.66 0.59 0.60 0.69 0.89 1.05 1.16 1.20 1.36 1.81 3.23 4.79 4.89 4.70 3.27 2.06 2.24 3.03 2.92 2.10 1.31 0.78 0.54 0.46 0.47 0.86 1.32 1.54 1.52 1.69 1.54 0.89 0.67 0.77 0.81 0.82 0.50 0.44 0.28 0.23 0.21 0.16 0.15 0.15 0.12 0.07 0.05 0.10 0.17 0.18 0.16 0.12 0.09 0.04
0.71 0.55 0.54 0.55 0.59 0.73 0.81 1.01 1.29 1.71 2.50 2.80 2.98 2.73 3.15 2.90 2.64 2.49 1.82 1.04 0.43 0.35 0.40 0.37 0.36 0.63 1.25 2.01 1.78 1.64 1.56 1.25 0.87 0.59 0.76 0.58 0.42 0.17 0.12 0.12 0.13 0.21 0.22 0.18 0.20 0.27 0.32 0.30 0.24 0.16 0.11 0.08 0.09 0.13
0.71 0.54 0.52 0.62 0.60 0.59 0.65 1.05 1.23 1.35 1.84 2.25 2.50 3.18 3.48 3.10 2.40 1.70 0.89 0.47 0.31 0.25 0.29 0.26 0.42 0.53 0.77 1.37 2.11 1.58 1.35 1.11 1.09 1.27 0.79 0.49 0.26 0.16 0.14 0.14 0.17 0.21 0.26 0.34 0.37 0.42 0.41 0.45 0.45 0.40 0.45 0.57 0.58 0.72
0.59 0.55 0.59 0.80 0.77 0.85 1.04 1.19 1.29 1.99 2.26 2.04 2.07 2.46 2.15 1.80 1.32 0.96 0.51 0.31 0.29 0.30 0.26 0.31 0.40 0.41 0.55 0.94 1.72 1.68 1.45 1.07 1.29 1.22 0.60 0.60 0.58 0.39 0.20 0.15 0.15 0.23 0.29 0.39 0.57 0.61 0.64 0.68 0.86 1.02 1.08 1.14 0.98 1.04
0.58 0.69 0.93 1.07 1.00 1.08 1.40 1.21 1.50 1.39 1.33 1.37 1.20 1.43 1.09 1.27 0.90 0.67 0.56 0.47 0.50 0.46 0.48 0.66 0.73 0.60 0.66 1.05 1.04 1.05 1.00 0.89 0.66 0.62 0.75 0.76 0.51 0.31 0.30 0.28 0.30 0.36 0.46 0.59 0.65 0.63 0.71 0.68 0.57 0.79 0.89 0.84 0.67 0.73
1.05 1.10 1.07 1.01 0.97 1.27 1.34 1.24 1.25 0.88 0.87 0.71 0.69 0.79 0.76 0.94 0.85 0.71 0.74 0.76 0.74 0.88 0.94 1.21 1.08 0.92 1.05 0.79 0.66 0.72 0.61 0.69 0.79 0.55 0.48 0.41 0.41 0.46 0.47 0.51 0.58 0.65 0.69 0.68 0.68 0.60 0.58 0.55 0.45 0.55 0.61 0.56 0.59 0.47
1.12 0.90 0.94 0.91 0.99 1.09 0.99 1.00 0.82 0.63 0.59 0.48 0.72 0.80 0.78 0.84 0.87 0.87 0.83 0.72 0.66 0.84 0.89 0.69 0.50 0.68 0.68 0.49 0.52 0.52 0.74 0.75 0.64 0.60 0.53 0.47 0.48 0.60 0.67 0.70 0.77 0.78 0.71 0.61 0.57 0.55 0.58 0.55 0.41 0.29 0.39 0.56 0.42 0.40
1.33 0.89 0.82 0.78 0.88 1.09 0.98 0.74 0.39 0.22 0.32 0.59 0.69 0.97 0.82 1.06 1.00 0.79 0.76 0.70 0.71 0.52 0.43 0.45 0.27 0.24 0.38 0.39 0.48 0.59 0.69 0.70 0.65 0.72 0.83 0.83 0.74 0.78 0.78 0.81 0.86 0.73 0.60 0.63 0.58 0.59 0.56 0.51 0.40 0.47 0.42 0.43 0.30 0.30
0.98 0.82 0.72 0.62 0.47 0.47 0.50 0.33 0.11 0.22 0.58 0.63 0.75 0.69 0.61 0.75 0.79 0.79 0.66 0.57 0.67 0.55 0.34 0.38 0.39 0.45 0.58 0.69 0.77 0.76 0.83 0.68 0.74 0.87 0.93 0.99 0.93 0.86 0.88 0.82 0.75 0.69 0.61 0.65 0.57 0.52 0.51 0.47 0.42 0.37 0.32 0.26 0.25 0.21
1.26 1.00 0.63 0.46 0.23 0.11 0.06 0.10 0.01 0.09 0.41 0.52 0.60 0.42 0.34 0.53 0.41 0.23 0.17 0.14 0.18 0.43 0.46 0.45 0.74 0.93 0.99 1.05 0.96 0.90 0.94 0.76 0.58 0.52 0.74 0.89 0.99 0.78 0.82 0.68 0.63 0.61 0.49 0.49 0.47 0.42 0.36 0.32 0.31 0.25 0.18 0.13 0.14 0.11
1.11 1.17 0.75 0.38 0.16 0.14 0.07 0.04 0.06 0.08 0.15 0.33 0.30 0.11 0.20 0.11 0.06 0.05 0.02 0.01 0.07 0.34 0.68 0.86 0.86 0.94 0.93 0.90 0.78 0.63 0.66 0.56 0.57 0.39 0.47 0.61 0.80 0.57 0.61 0.64 0.55 0.46 0.39 0.41 0.37 0.37 0.28 0.27 0.21 0.14 0.16 0.12 0.09 0.08
0.59 0.71 0.71 0.40 0.29 0.14 0.10 0.03 0.07 0.09 0.06 0.13 0.13 0.07 0.12 0.12 0.08 0.03 0.01 0.06 0.33 0.60 0.72 0.74 0.69 0.63 0.56 0.63 0.73 0.64 0.72 0.49 0.43 0.38 0.43 0.40 0.47 0.48 0.53 0.58 0.41 0.42 0.39 0.37 0.28 0.23 0.16 0.12 0.11 0.09 0.09 0.08 0.07 0.08
0.49 0.52 0.56 0.46 0.31 0.14 0.11 0.05 0.02 0.04 0.05 0.07 0.05 0.03 0.06 0.07 0.06 0.02 0.06 0.17 0.52 0.73 0.59 0.47 0.52 0.50 0.51 0.64 0.41 0.44 0.55 0.39 0.37 0.43 0.45 0.41 0.40 0.41 0.36 0.37 0.32 0.26 0.21 0.18 0.15 0.13 0.13 0.09 0.06 0.04 0.04 0.07 0.11 0.10
0.44 0.52 0.51 0.44 0.26 0.22 0.10 0.12 0.06 0.05 0.04 0.04 0.04 0.07 0.09 0.06 0.03 0.03 0.11 0.28 0.54 0.41 0.33 0.47 0.39 0.36 0.30 0.23 0.28 0.38 0.52 0.31 0.28 0.32 0.32 0.17 0.15 0.18 0.13 0.13 0.12 0.12 0.12 0.10 0.07 0.05 0.04 0.05 0.05 0.07 0.09 0.11 0.10 0.12
0.39 0.38 0.35 0.30 0.16 0.09 0.07 0.08 0.08 0.05 0.04 0.04 0.05 0.08 0.06 0.03 0.03 0.06 0.12 0.35 0.30 0.30 0.33 0.31 0.23 0.24 0.27 0.34 0.33 0.30 0.22 0.14 0.12 0.13 0.19 0.10 0.09 0.08 0.06 0.06 0.06 0.07 0.06 0.06 0.05 0.06 0.06 0.09 0.10 0.09 0.08 0.10 0.13 0.15
0.28 0.19 0.15 0.15 0.12 0.08 0.05 0.07 0.08 0.08 0.07 0.08 0.13 0.11 0.06 0.07 0.06 0.14 0.25 0.37 0.30 0.33 0.37 0.35 0.28 0.17 0.16 0.17 0.16 0.15 0.12 0.09 0.04 0.03 0.08 0.06 0.07 0.09 0.08 0.06 0.05 0.05 0.04 0.08 0.15 0.13 0.08 0.05 0.06 0.09 0.10 0.11 0.14 0.17
0.15 0.14 0.08 0.08 0.18 0.26 0.22 0.14 0.16 0.16 0.15 0.17 0.15 0.11 0.16 0.14 0.13 0.27 0.33 0.29 0.24 0.29 0.23 0.19 0.13 0.11 0.11 0.11 0.08 0.05 0.02 0.01 0.02 0.02 0.03 0.03 0.03 0.04 0.09 0.17 0.19 0.18 0.09 0.09 0.13 0.16 0.18 0.15 0.13 0.12 0.14 0.12 0.16 0.24
0.06 0.08 0.13 0.17 0.24 0.26 0.33 0.28 0.23 0.21 0.22 0.18 0.18 0.16 0.17 0.15 0.27 0.35 0.33 0.33 0.22 0.14 0.08 0.06 0.06 0.05 0.06 0.08 0.08 0.06 0.05 0.03 0.01 0.01 0.03 0.07 0.06 0.09 0.10 0.11 0.12 0.09 0.08 0.10 0.12 0.14 0.18 0.22 0.21 0.18 0.19 0.22 0.21 0.18
0.11 0.10 0.11 0.11 0.15 0.14 0.17 0.20 0.21 0.18 0.19 0.17 0.15 0.13 0.15 0.25 0.44 0.41 0.40 0.26 0.19 0.13 0.11 0.11 0.15 0.09 0.07 0.05 0.05 0.06 0.06 0.08 0.08 0.07 0.06 0.08 0.13 0.14 0.09 0.09 0.09 0.09 0.10 0.09 0.09 0.14 0.17 0.20 0.18 0.19 0.26 0.29 0.25 0.27
0.07 0.06 0.07 0.06 0.08 0.14 0.22 0.15 0.16 0.13 0.08 0.08 0.08 0.12 0.15 0.35 0.51 0.40 0.35 0.25 0.22 0.22 0.21 0.15 0.16 0.10 0.10 0.08 0.07 0.10 0.16 0.14 0.15 0.20 0.19 0.15 0.14 0.13 0.11 0.11 0.10 0.10 0.11 0.11 0.09 0.08 0.08 0.06 0.07 0.14 0.15 0.16 0.23 0.28
0.08 0.10 0.10 0.08 0.14 0.17 0.16 0.12 0.13 0.12 0.11 0.10 0.10 0.09 0.21 0.31 0.35 0.26 0.27 0.35 0.22 0.17 0.14 0.12 0.11 0.11 0.10 0.11 0.14 0.16 0.21 0.18 0.17 0.17 0.16 0.15 0.14 0.12 0.11 0.09 0.09 0.09 0.09 0.09 0.10 0.11 0.11 0.09 0.12 0.16 0.13 0.13 0.16 0.17
0.10 0.12 0.09 0.09 0.17 0.15 0.17 0.23 0.16 0.16 0.13 0.11 0.13 0.11 0.18 0.16 0.17 0.23 0.22 0.24 0.23 0.19 0.19 0.19 0.20 0.22 0.23 0.24 0.23 0.23 0.22 0.19 0.16 0.15 0.14 0.14 0.12 0.10 0.07 0.06 0.07 0.09 0.11 0.10 0.12 0.13 0.14 0.13 0.14 0.12 0.13 0.11 0.11 0.10
0.08 0.08 0.08 0.08 0.11 0.14 0.14 0.16 0.11 0.10 0.12 0.13 0.18 0.20 0.20 0.18 0.24 0.33 0.26 0.25 0.39 0.41 0.31 0.31 0.33 0.31 0.31 0.26 0.21 0.20 0.17 0.14 0.12 0.11 0.11 0.09 0.07 0.04 0.04 0.06 0.06 0.07 0.09 0.09 0.12 0.12 0.11 0.09 0.09 0.09 0.08 0.08 0.08 0.08

GFSWCAN_prec_precacc_138.txt.gz
Total_Precipitation_Accumulation
1.67 1.33 1.22 1.01 0.91 0.73 0.67 0.79 0.76 0.72 0.64 0.66 0.76 0.64 0.50 0.64 1.17 1.89 1.83 1.27 3.22 1.97 0.45 0.30 0.21 0.09 0.09 0.42 0.73 0.49 0.64 0.68 0.73 0.58 0.40 0.31 0.24 0.18 0.21 0.46 0.78 0.61 0.44 0.47 0.51 0.50 0.37 0.09 0.19 0.67 1.29 0.67 0.67 0.63
1.96 1.54 1.07 1.03 0.85 0.76 0.68 0.82 0.77 0.70 0.56 0.54 0.68 0.66 0.64 0.77 1.35 1.66 1.57 1.21 2.24 2.41 0.95 0.43 0.33 0.13 0.08 0.16 0.48 0.61 0.52 0.40 0.32 0.52 0.45 0.30 0.22 0.21 0.20 0.43 0.71 0.79 0.43 0.57 0.40 0.46 0.31 0.20 0.27 0.23 0.16 0.15 0.11 0.14
2.05 1.70 1.23 0.95 0.85 0.76 0.82 0.89 0.76 0.75 0.65 0.61 0.74 0.81 0.75 1.07 1.55 1.65 1.29 1.33 3.06 3.19 1.15 0.55 0.44 0.25 0.11 0.14 0.32 0.44 0.32 0.27 0.32 0.52 0.50 0.49 0.35 0.33 0.30 0.37 0.54 0.79 0.47 0.70 0.52 0.43 0.24 0.26 0.27 0.10 0.09 0.09 0.09 0.19
2.11 1.64 1.20 1.01 0.93 0.76 0.71 0.74 0.63 0.69 0.77 0.86 1.04 0.98 0.96 1.46 1.68 1.74 1.45 1.31 2.02 2.20 1.63 0.53 0.24 0.30 0.19 0.10 0.25 0.23 0.17 0.19 0.38 0.57 0.62 0.61 0.35 0.19 0.21 0.23 0.35 0.38 0.66 1.00 0.92 0.76 0.51 0.34 0.33 0.32 0.22 0.23 0.17 0.06
1.69 1.50 0.97 0.93 1.08 0.86 0.74 0.68 0.63 0.72 0.89 1.00 1.37 1.14 1.32 1.59 1.91 2.16 1.66 1.50 1.34 1.66 1.49 0.72 0.39 0.35 0.52 0.29 0.25 0.23 0.29 0.38 0.58 0.94 0.84 0.45 0.19 0.27 0.21 0.30 0.51 0.30 0.74 0.98 1.51 1.03 0.86 0.69 0.51 0.47 0.37 0.12 0.05 0.07
1.50 1.28 0.95 0.85 1.00 1.00 0.96 0.83 0.78 0.81 0.80 1.10 1.24 1.25 1.37 1.77 3.12 4.14 4.42 2.18 1.45 1.44 1.60 1.20 0.66 0.42 0.57 0.65 0.51 0.57 0.49 0.58 0.80 0.79 0.70 0.48 0.31 0.63 0.65 0.48 0.22 0.19 0.29 0.45 0.74 0.99 0.81 0.75 0.52 0.33 0.24 0.18 0.06 0.01
1.59 1.22 0.94 0.93 1.05 1.09 1.24 1.02 0.82 0.78 0.93 1.16 1.13 1.39 1.48 2.18 3.34 2.63 1.84 1.32 1.21 1.54 1.96 1.16 0.92 0.64 0.71 0.81 0.84 0.62 0.66 0.64 0.88 0.96 0.54 0.32 0.36 0.64 0.74 0.57 0.18 0.22 0.26 0.30 0.34 0.42 0.49 0.45 0.38 0.25 0.21 0.17 0.08 0.06
1.58 1.14 0.80 0.91 1.10 1.11 1.09 1.07 1.12 1.07 1.04 1.04 1.42 1.77 2.03 2.94 2.94 1.58 0.60 0.64 1.15 1.74 1.49 1.15 0.93 1.16 1.11 1.18 0.97 0.93 0.89 0.88 0.87 0.94 0.59 0.41 0.61 0.90 0.91 0.23 0.06 0.09 0.10 0.20 0.18 0.13 0.22 0.23 0.20 0.18 0.15 0.14 0.10 0.10
1.18 0.84 0.81 0.89 1.23 1.40 1.21 1.11 1.31 1.31 1.29 1.67 2.35 3.33 4.92 4.85 3.63 1.67 1.15 1.14 1.48 1.93 1.58 0.75 0.81 1.59 1.21 1.47 1.22 1.12 1.21 1.47 1.02 0.64 0.49 0.74 0.79 1.23 0.78 0.25 0.13 0.08 0.07 0.08 0.08 0.06 0.08 0.14 0.15 0.15 0.15 0.13 0.14 0.21
0.88 0.68 0.73 0.83 1.07 1.45 1.57 1.49 1.44 1.66 2.14 3.17 4.26 5.49 5.67 3.11 1.77 2.18 3.56 3.49 2.67 1.66 1.13 0.67 0.37 1.20 1.46 1.46 1.47 1.40 0.99 1.22 1.30 0.69 0.61 0.80 0.94 0.66 0.31 0.19 0.15 0.12 0.08 0.05 0.07 0.07 0.05 0.09 0.10 0.11 0.16 0.18 0.16 0.14
0.68 0.60 0.61 0.69 0.89 1.06 1.17 1.20 1.36 1.81 3.23 4.79 4.89 4.70 3.27 2.06 2.24 3.03 2.92 2.10 1.31 0.78 0.54 0.47 0.47 0.86 1.32 1.55 1.53 1.69 1.54 0.89 0.67 0.77 0.81 0.82 0.50 0.44 0.28 0.23 0.21 0.16 0.15 0.15 0.12 0.07 0.05 0.10 0.17 0.18 0.16 0.12 0.09 0.04
0.72 0.55 0.54 0.56 0.60 0.75 0.82 1.01 1.29 1.71 2.50 2.80 2.98 2.73 3.15 2.90 2.64 2.49 1.82 1.04 0.43 0.35 0.40 0.38 0.36 0.63 1.26 2.03 1.79 1.64 1.56 1.25 0.88 0.59 0.76 0.58 0.42 0.17 0.12 0.12 0.13 0.21 0.22 0.18 0.20 0.27 0.32 0.30 0.24 0.16 0.11 0.08 0.09 0.13
0.71 0.54 0.53 0.65 0.62 0.60 0.65 1.05 1.23 1.35 1.84 2.25 2.50 3.18 3.48 3.10 2.40 1.70 0.89 0.47 0.31 0.25 0.29 0.26 0.43 0.54 0.77 1.38 2.12 1.59 1.35 1.12 1.10 1.27 0.79 0.50 0.26 0.16 0.14 0.14 0.17 0.21 0.26 0.34 0.37 0.42 0.41 0.45 0.45 0.40 0.45 0.57 0.58 0.72
0.60 0.55 0.59 0.81 0.77 0.85 1.04 1.19 1.29 1.99 2.26 2.04 2.07 2.46 2.15 1.80 1.33 0.97 0.52 0.32 0.29 0.30 0.27 0.32 0.40 0.42 0.56 0.94 1.73 1.68 1.46 1.07 1.29 1.22 0.60 0.60 0.58 0.39 0.20 0.15 0.15 0.23 0.29 0.39 0.57 0.61 0.64 0.68 0.86 1.02 1.08 1.14 0.98 1.04
0.59 0.70 0.94 1.08 1.00 1.08 1.40 1.21 1.50 1.39 1.33 1.37 1.20 1.44 1.09 1.27 0.90 0.67 0.57 0.47 0.50 0.47 0.48 0.67 0.74 0.61 0.67 1.05 1.04 1.06 1.00 0.89 0.66 0.62 0.77 0.77 0.51 0.31 0.30 0.28 0.30 0.36 0.46 0.59 0.65 0.63 0.71 0.68 0.57 0.79 0.89 0.84 0.67 0.73
1.06 1.12 1.08 1.01 0.97 1.27 1.34 1.24 1.25 0.88 0.87 0.71 0.69 0.79 0.77 0.95 0.86 0.72 0.75 0.77 0.74 0.89 0.97 1.25 1.09 0.94 1.05 0.79 0.66 0.73 0.61 0.70 0.80 0.57 0.49 0.41 0.41 0.46 0.47 0.51 0.58 0.65 0.69 0.68 0.68 0.60 0.58 0.55 0.45 0.55 0.61 0.56 0.59 0.47
1.13 0.93 0.95 0.91 0.99 1.09 0.99 1.00 0.82 0.63 0.59 0.48 0.72 0.81 0.81 0.85 0.88 0.88 0.84 0.73 0.66 0.86 0.93 0.72 0.52 0.69 0.69 0.49 0.52 0.52 0.75 0.78 0.65 0.60 0.53 0.47 0.48 0.60 0.67 0.70 0.77 0.78 0.71 0.61 0.57 0.55 0.58 0.55 0.41 0.29 0.39 0.56 0.42 0.40
1.33 0.89 0.82 0.78 0.88 1.09 0.98 0.74 0.39 0.22 0.33 0.60 0.69 0.98 0.82 1.07 1.01 0.79 0.77 0.71 0.73 0.55 0.45 0.48 0.29 0.25 0.38 0.40 0.49 0.62 0.70 0.70 0.65 0.72 0.83 0.83 0.74 0.78 0.78 0.81 0.86 0.73 0.60 0.63 0.58 0.59 0.56 0.51 0.40 0.47 0.42 0.43 0.30 0.30
0.99 0.82 0.72 0.62 0.47 0.47 0.50 0.33 0.11 0.22 0.58 0.63 0.75 0.70 0.61 0.75 0.79 0.79 0.66 0.58 0.67 0.55 0.34 0.38 0.40 0.47 0.61 0.73 0.80 0.78 0.84 0.69 0.74 0.87 0.93 0.99 0.93 0.86 0.88 0.82 0.75 0.69 0.61 0.65 0.57 0.52 0.51 0.47 0.42 0.37 0.32 0.26 0.25 0.21
1.26 1.00 0.63 0.46 0.23 0.11 0.06 0.10 0.01 0.09 0.41 0.52 0.60 0.42 0.35 0.53 0.41 0.23 0.17 0.14 0.18 0.44 0.46 0.45 0.76 0.95 1.01 1.05 0.96 0.90 0.94 0.76 0.58 0.52 0.74 0.89 0.99 0.78 0.82 0.68 0.63 0.61 0.49 0.49 0.47 0.42 0.36 0.32 0.31 0.25 0.18 0.13 0.14 0.11
1.14 1.19 0.76 0.38 0.16 0.14 0.07 0.04 0.06 0.08 0.15 0.33 0.30 0.11 0.20 0.11 0.06 0.05 0.02 0.01 0.07 0.34 0.68 0.86 0.87 0.94 0.93 0.90 0.78 0.63 0.66 0.56 0.57 0.39 0.47 0.61 0.80 0.57 0.61 0.64 0.55 0.46 0.39 0.41 0.37 0.37 0.28 0.27 0.21 0.14 0.16 0.12 0.09 0.08
0.62 0.75 0.72 0.40 0.29 0.14 0.10 0.03 0.07 0.09 0.06 0.13 0.13 0.07 0.12 0.12 0.08 0.04 0.01 0.06 0.33 0.61 0.72 0.74 0.70 0.64 0.56 0.63 0.73 0.64 0.72 0.49 0.43 0.38 0.43 0.40 0.47 0.48 0.53 0.58 0.41 0.42 0.39 0.37 0.28 0.23 0.16 0.12 0.11 0.09 0.09 0.08 0.07 0.08
0.50 0.53 0.57 0.46 0.31 0.14 0.11 0.05 0.02 0.04 0.05 0.07 0.05 0.03 0.06 0.07 0.06 0.02 0.06 0.17 0.52 0.73 0.59 0.47 0.52 0.50 0.52 0.64 0.41 0.44 0.55 0.39 0.37 0.43 0.45 0.41 0.40 0.41 0.36 0.37 0.32 0.26 0.21 0.18 0.15 0.13 0.13 0.09 0.06 0.04 0.04 0.07 0.11 0.11
0.44 0.52 0.51 0.44 0.26 0.22 0.10 0.12 0.06 0.05 0.04 0.04 0.05 0.07 0.09 0.07 0.03 0.03 0.12 0.29 0.54 0.41 0.33 0.47 0.39 0.36 0.30 0.23 0.28 0.38 0.52 0.31 0.28 0.32 0.32 0.17 0.15 0.18 0.13 0.13 0.12 0.12 0.12 0.10 0.07 0.05 0.05 0.05 0.05 0.07 0.09 0.11 0.11 0.13
0.39 0.38 0.35 0.30 0.16 0.09 0.07 0.08 0.08 0.05 0.04 0.04 0.05 0.08 0.07 0.04 0.04 0.07 0.13 0.37 0.31 0.31 0.33 0.31 0.24 0.24 0.27 0.34 0.33 0.30 0.22 0.14 0.12 0.13 0.19 0.10 0.09 0.08 0.06 0.06 0.06 0.07 0.06 0.06 0.05 0.06 0.06 0.09 0.10 0.09 0.08 0.10 0.14 0.15
0.28 0.19 0.15 0.15 0.12 0.08 0.05 0.07 0.08 0.08 0.07 0.09 0.14 0.12 0.06 0.08 0.08 0.17 0.26 0.39 0.31 0.34 0.38 0.36 0.29 0.18 0.16 0.17 0.17 0.16 0.12 0.09 0.04 0.04 0.09 0.06 0.07 0.09 0.08 0.06 0.06 0.05 0.04 0.08 0.15 0.14 0.09 0.05 0.07 0.09 0.10 0.11 0.15 0.18
0.15 0.15 0.08 0.08 0.19 0.26 0.23 0.16 0.17 0.18 0.17 0.19 0.17 0.12 0.17 0.15 0.16 0.28 0.34 0.29 0.24 0.29 0.23 0.19 0.14 0.11 0.12 0.11 0.08 0.06 0.03 0.01 0.02 0.03 0.03 0.03 0.03 0.04 0.09 0.17 0.19 0.18 0.09 0.09 0.14 0.17 0.18 0.15 0.13 0.13 0.15 0.13 0.16 0.24
0.07 0.08 0.15 0.18 0.25 0.27 0.35 0.31 0.27 0.24 0.27 0.21 0.20 0.18 0.19 0.17 0.29 0.36 0.34 0.33 0.23 0.15 0.09 0.07 0.07 0.05 0.07 0.08 0.09 0.07 0.06 0.03 0.02 0.01 0.04 0.08 0.06 0.09 0.10 0.11 0.12 0.09 0.08 0.10 0.12 0.15 0.19 0.23 0.22 0.19 0.19 0.22 0.22 0.19
0.11 0.10 0.11 0.12 0.16 0.14 0.18 0.22 0.26 0.22 0.20 0.19 0.20 0.16 0.15 0.25 0.46 0.43 0.41 0.27 0.20 0.14 0.12 0.12 0.16 0.09 0.08 0.08 0.07 0.07 0.08 0.09 0.10 0.09 0.09 0.13 0.16 0.15 0.10 0.09 0.09 0.09 0.10 0.10 0.09 0.14 0.17 0.20 0.19 0.21 0.27 0.30 0.27 0.29
0.08 0.06 0.08 0.06 0.08 0.15 0.23 0.15 0.16 0.14 0.08 0.09 0.09 0.12 0.16 0.36 0.52 0.41 0.36 0.26 0.23 0.23 0.22 0.17 0.17 0.11 0.11 0.09 0.10 0.12 0.17 0.15 0.16 0.21 0.22 0.18 0.17 0.15 0.11 0.11 0.11 0.11 0.11 0.11 0.10 0.08 0.08 0.06 0.07 0.14 0.15 0.16 0.24 0.30
0.09 0.10 0.11 0.08 0.15 0.18 0.16 0.13 0.14 0.12 0.12 0.11 0.10 0.10 0.22 0.32 0.36 0.27 0.27 0.36 0.23 0.18 0.15 0.13 0.12 0.12 0.11 0.12 0.15 0.17 0.22 0.19 0.18 0.18 0.17 0.17 0.16 0.13 0.11 0.10 0.09 0.10 0.10 0.10 0.12 0.14 0.13 0.11 0.15 0.17 0.15 0.16 0.18 0.18
0.11 0.13 0.11 0.11 0.20 0.15 0.17 0.24 0.17 0.17 0.15 0.13 0.14 0.11 0.20 0.17 0.18 0.24 0.23 0.24 0.24 0.20 0.20 0.20 0.21 0.23 0.24 0.26 0.25 0.25 0.24 0.21 0.17 0.15 0.14 0.14 0.12 0.10 0.07 0.07 0.08 0.10 0.12 0.11 0.13 0.15 0.15 0.15 0.16 0.15 0.16 0.13 0.12 0.12
0.08 0.09 0.09 0.09 0.12 0.15 0.15 0.17 0.13 0.11 0.14 0.15 0.19 0.21 0.22 0.19 0.25 0.34 0.27 0.25 0.41 0.42 0.32 0.32 0.34 0.32 0.32 0.28 0.23 0.22 0.18 0.16 0.12 0.11 0.11 0.09 0.07 0.05 0.05 0.06 0.07 0.08 0.10 0.10 0.13 0.13 0.12 0.10 0.09 0.10 0.09 0.08 0.09 0.09